Wetterdaten: Sonntag, 26.01.2014
Datum Zeit Temp. Aussen +5cm Feuchte Auss Luftdruck Regen Sonnenschein Regendauer UV Solar Windben
26.01.2014 00:00 3,8 C 2,2 C 95 % 1004,9 hPa 0,0 l/m 0 min 2 min 0,0 UV-I 0 W/m 20,6 km/h (4 Bft)
26.01.2014 00:02 3,8 C 2,2 C 95 % 1004,9 hPa 0,0 l/m 0 min 2 min 0,0 UV-I 0 W/m 23,2 km/h (4 Bft)
26.01.2014 00:04 3,8 C 2,2 C 95 % 1004,9 hPa 0,0 l/m 0 min 2 min 0,0 UV-I 0 W/m 10,3 km/h (2 Bft)
26.01.2014 00:06 3,8 C 2,2 C 95 % 1004,8 hPa 0,0 l/m 0 min 0 min 0,0 UV-I 0 W/m 15,4 km/h (3 Bft)
26.01.2014 00:08 3,8 C 2,2 C 95 % 1004,8 hPa 0,0 l/m 0 min 2 min 0,0 UV-I 0 W/m 20,6 km/h (4 Bft)
26.01.2014 00:10 3,8 C 2,2 C 95 % 1004,8 hPa 0,0 l/m 0 min 2 min 0,0 UV-I 0 W/m 10,3 km/h (2 Bft)
26.01.2014 00:12 3,8 C 2,2 C 95 % 1004,7 hPa 0,0 l/m 0 min 0 min 0,0 UV-I 0 W/m 12,9 km/h (3 Bft)
26.01.2014 00:14 3,8 C 2,2 C 95 % 1004,8 hPa 0,0 l/m 0 min 0 min 0,0 UV-I 0 W/m 25,7 km/h (4 Bft)
26.01.2014 00:16 3,8 C 2,2 C 95 % 1004,8 hPa 0,0 l/m 0 min 2 min 0,0 UV-I 0 W/m 28,3 km/h (4 Bft)
26.01.2014 00:18 3,8 C 2,2 C 95 % 1004,7 hPa 0,0 l/m 0 min 0 min 0,0 UV-I 0 W/m 28,3 km/h (4 Bft)
26.01.2014 00:20 3,9 C 2,2 C 95 % 1004,9 hPa 0,0 l/m 0 min 0 min 0,0 UV-I 0 W/m 15,4 km/h (3 Bft)
26.01.2014 00:22 3,9 C 2,8 C 95 % 1004,9 hPa 0,0 l/m 0 min 2 min 0,0 UV-I 0 W/m 12,9 km/h (3 Bft)
26.01.2014 00:24 3,9 C 2,8 C 95 % 1004,8 hPa 0,0 l/m 0 min 2 min 0,0 UV-I 0 W/m 18,0 km/h (3 Bft)
26.01.2014 00:26 3,9 C 2,8 C 95 % 1004,9 hPa 0,0 l/m 0 min 2 min 0,0 UV-I 0 W/m 10,3 km/h (2 Bft)
26.01.2014 00:28 3,9 C 2,8 C 95 % 1004,8 hPa 0,0 l/m 0 min 2 min 0,0 UV-I 0 W/m 20,6 km/h (4 Bft)
26.01.2014 00:30 3,9 C 2,8 C 95 % 1004,9 hPa 0,0 l/m 0 min 2 min 0,0 UV-I 0 W/m 20,6 km/h (4 Bft)
26.01.2014 00:32 4,0 C 2,8 C 95 % 1005,0 hPa 0,0 l/m 0 min 2 min 0,0 UV-I 0 W/m 23,2 km/h (4 Bft)
26.01.2014 00:34 4,0 C 2,8 C 95 % 1004,9 hPa 0,0 l/m 0 min 2 min 0,0 UV-I 0 W/m 20,6 km/h (4 Bft)
26.01.2014 00:36 4,0 C 2,8 C 95 % 1005,1 hPa 0,0 l/m 0 min 2 min 0,0 UV-I 0 W/m 28,3 km/h (4 Bft)
26.01.2014 00:38 4,1 C 2,8 C 95 % 1005,0 hPa 0,0 l/m 0 min 2 min 0,0 UV-I 0 W/m 28,3 km/h (4 Bft)
26.01.2014 00:40 4,1 C 2,8 C 95 % 1005,0 hPa 0,0 l/m 0 min 2 min 0,0 UV-I 0 W/m 25,7 km/h (4 Bft)
26.01.2014 00:42 4,1 C 2,8 C 95 % 1005,0 hPa 0,0 l/m 0 min 2 min 0,0 UV-I 0 W/m 25,7 km/h (4 Bft)
26.01.2014 00:44 4,2 C 2,8 C 95 % 1005,0 hPa 0,0 l/m 0 min 2 min 0,0 UV-I 0 W/m 23,2 km/h (4 Bft)
26.01.2014 00:46 4,2 C 2,8 C 95 % 1005,1 hPa 0,0 l/m 0 min 2 min 0,0 UV-I 0 W/m 23,2 km/h (4 Bft)
26.01.2014 00:48 4,2 C 2,8 C 95 % 1005,1 hPa 0,0 l/m 0 min 2 min 0,0 UV-I 0 W/m 12,9 km/h (3 Bft)
26.01.2014 00:50 4,2 C 2,8 C 95 % 1005,0 hPa 0,0 l/m 0 min 2 min 0,0 UV-I 0 W/m 25,7 km/h (4 Bft)
26.01.2014 00:52 4,2 C 2,8 C 95 % 1005,0 hPa 0,0 l/m 0 min 2 min 0,0 UV-I 0 W/m 12,9 km/h (3 Bft)
26.01.2014 00:54 4,2 C 2,8 C 95 % 1005,0 hPa 0,0 l/m 0 min 2 min 0,0 UV-I 0 W/m 25,7 km/h (4 Bft)
26.01.2014 00:56 4,3 C 2,8 C 95 % 1005,1 hPa 0,2 l/m 0 min 2 min 0,0 UV-I 0 W/m 25,7 km/h (4 Bft)
26.01.2014 00:58 4,3 C 2,8 C 95 % 1005,0 hPa 0,0 l/m 0 min 2 min 0,0 UV-I 0 W/m 30,9 km/h (5 Bft)
26.01.2014 01:00 4,3 C 2,8 C 95 % 1005,1 hPa 0,0 l/m 0 min 2 min 0,0 UV-I 0 W/m 30,9 km/h (5 Bft)
26.01.2014 01:02 4,4 C 2,8 C 95 % 1005,1 hPa 0,0 l/m 0 min 2 min 0,0 UV-I 0 W/m 30,9 km/h (5 Bft)
26.01.2014 01:04 4,4 C 2,8 C 95 % 1005,1 hPa 0,0 l/m 0 min 2 min 0,0 UV-I 0 W/m 23,2 km/h (4 Bft)
26.01.2014 01:06 4,4 C 2,8 C 96 % 1005,2 hPa 0,0 l/m 0 min 2 min 0,0 UV-I 0 W/m 30,9 km/h (5 Bft)
26.01.2014 01:08 4,5 C 2,8 C 96 % 1005,1 hPa 0,0 l/m 0 min 2 min 0,0 UV-I 0 W/m 25,7 km/h (4 Bft)
26.01.2014 01:10 4,5 C 2,8 C 96 % 1005,1 hPa 0,0 l/m 0 min 2 min 0,0 UV-I 0 W/m 41,2 km/h (6 Bft)
26.01.2014 01:12 4,6 C 3,3 C 96 % 1005,1 hPa 0,0 l/m 0 min 2 min 0,0 UV-I 0 W/m 38,6 km/h (5 Bft)
26.01.2014 01:14 4,6 C 3,3 C 96 % 1005,2 hPa 0,0 l/m 0 min 2 min 0,0 UV-I 0 W/m 25,7 km/h (4 Bft)
26.01.2014 01:16 4,6 C 3,3 C 95 % 1005,1 hPa 0,0 l/m 0 min 2 min 0,0 UV-I 0 W/m 33,5 km/h (5 Bft)
26.01.2014 01:18 4,6 C 3,3 C 95 % 1005,1 hPa 0,0 l/m 0 min 2 min 0,0 UV-I 0 W/m 18,0 km/h (3 Bft)
26.01.2014 01:20 4,7 C 3,3 C 95 % 1005,2 hPa 0,0 l/m 0 min 2 min 0,0 UV-I 0 W/m 41,2 km/h (6 Bft)
26.01.2014 01:22 4,7 C 3,3 C 95 % 1005,1 hPa 0,0 l/m 0 min 2 min 0,0 UV-I 0 W/m 20,6 km/h (4 Bft)
26.01.2014 01:24 4,7 C 3,3 C 95 % 1005,1 hPa 0,0 l/m 0 min 2 min 0,0 UV-I 0 W/m 18,0 km/h (3 Bft)
26.01.2014 01:26 4,7 C 3,3 C 95 % 1005,3 hPa 0,0 l/m 0 min 2 min 0,0 UV-I 0 W/m 30,9 km/h (5 Bft)
26.01.2014 01:28 4,7 C 3,3 C 95 % 1005,4 hPa 0,0 l/m 0 min 2 min 0,0 UV-I 0 W/m 33,5 km/h (5 Bft)
26.01.2014 01:30 4,7 C 3,3 C 95 % 1005,4 hPa 0,0 l/m 0 min 2 min 0,0 UV-I 0 W/m 25,7 km/h (4 Bft)
26.01.2014 01:32 4,7 C 3,3 C 95 % 1005,5 hPa 0,0 l/m 0 min 2 min 0,0 UV-I 0 W/m 28,3 km/h (4 Bft)
26.01.2014 01:34 4,8 C 3,3 C 95 % 1005,6 hPa 0,0 l/m 0 min 2 min 0,0 UV-I 0 W/m 36,0 km/h (5 Bft)
26.01.2014 01:36 4,8 C 3,3 C 95 % 1005,6 hPa 0,0 l/m 0 min 2 min 0,0 UV-I 0 W/m 23,2 km/h (4 Bft)
26.01.2014 01:38 4,8 C 3,3 C 95 % 1005,6 hPa 0,0 l/m 0 min 2 min 0,0 UV-I 0 W/m 20,6 km/h (4 Bft)
26.01.2014 01:40 4,8 C 3,3 C 95 % 1005,6 hPa 0,0 l/m 0 min 2 min 0,0 UV-I 0 W/m 20,6 km/h (4 Bft)
26.01.2014 01:42 4,8 C 3,3 C 95 % 1005,8 hPa 0,0 l/m 0 min 2 min 0,0 UV-I 0 W/m 23,2 km/h (4 Bft)
26.01.2014 01:44 4,8 C 3,3 C 95 % 1005,7 hPa 0,2 l/m 0 min 2 min 0,0 UV-I 0 W/m 23,2 km/h (4 Bft)
26.01.2014 01:46 4,8 C 3,3 C 94 % 1005,8 hPa 0,0 l/m 0 min 2 min 0,0 UV-I 0 W/m 10,3 km/h (2 Bft)
26.01.2014 01:48 4,8 C 3,3 C 94 % 1005,8 hPa 0,0 l/m 0 min 2 min 0,0 UV-I 0 W/m 15,4 km/h (3 Bft)
26.01.2014 01:50 4,8 C 3,3 C 94 % 1005,9 hPa 0,0 l/m 0 min 2 min 0,0 UV-I 0 W/m 15,4 km/h (3 Bft)
26.01.2014 01:52 4,8 C 3,3 C 94 % 1005,8 hPa 0,0 l/m 0 min 2 min 0,0 UV-I 0 W/m 23,2 km/h (4 Bft)
26.01.2014 01:54 4,8 C 3,3 C 94 % 1006,0 hPa 0,0 l/m 0 min 2 min 0,0 UV-I 0 W/m 28,3 km/h (4 Bft)
26.01.2014 01:56 4,8 C 3,3 C 94 % 1005,9 hPa 0,2 l/m 0 min 2 min 0,0 UV-I 0 W/m 7,7 km/h (2 Bft)
26.01.2014 01:58 4,8 C 3,3 C 94 % 1005,9 hPa 0,0 l/m 0 min 2 min 0,0 UV-I 0 W/m 23,2 km/h (4 Bft)
26.01.2014 02:00 4,8 C 3,3 C 94 % 1005,9 hPa 0,0 l/m 0 min 2 min 0,0 UV-I 0 W/m 10,3 km/h (2 Bft)
26.01.2014 02:02 4,8 C 3,3 C 94 % 1006,0 hPa 0,0 l/m 0 min 2 min 0,0 UV-I 0 W/m 20,6 km/h (4 Bft)
26.01.2014 02:04 4,8 C 3,3 C 94 % 1006,0 hPa 0,0 l/m 0 min 2 min 0,0 UV-I 0 W/m 23,2 km/h (4 Bft)
26.01.2014 02:06 4,8 C 3,3 C 94 % 1006,1 hPa 0,0 l/m 0 min 2 min 0,0 UV-I 0 W/m 12,9 km/h (3 Bft)
26.01.2014 02:08 4,8 C 3,3 C 94 % 1006,2 hPa 0,0 l/m 0 min 2 min 0,0 UV-I 0 W/m 25,7 km/h (4 Bft)
26.01.2014 02:10 4,8 C 3,3 C 94 % 1006,2 hPa 0,0 l/m 0 min 2 min 0,0 UV-I 0 W/m 18,0 km/h (3 Bft)
26.01.2014 02:12 4,8 C 3,3 C 94 % 1006,3 hPa 0,0 l/m 0 min 0 min 0,0 UV-I 0 W/m 15,4 km/h (3 Bft)
26.01.2014 02:14 4,8 C 3,3 C 94 % 1006,2 hPa 0,0 l/m 0 min 0 min 0,0 UV-I 0 W/m 33,5 km/h (5 Bft)
26.01.2014 02:16 4,8 C 3,3 C 94 % 1006,3 hPa 0,0 l/m 0 min 2 min 0,0 UV-I 0 W/m 18,0 km/h (3 Bft)
26.01.2014 02:18 4,8 C 3,3 C 94 % 1006,3 hPa 0,0 l/m 0 min 0 min 0,0 UV-I 0 W/m 20,6 km/h (4 Bft)
26.01.2014 02:20 4,8 C 3,3 C 94 % 1006,3 hPa 0,0 l/m 0 min 0 min 0,0 UV-I 0 W/m 12,9 km/h (3 Bft)
26.01.2014 02:22 4,9 C 3,3 C 94 % 1006,3 hPa 0,0 l/m 0 min 2 min 0,0 UV-I 0 W/m 30,9 km/h (5 Bft)
26.01.2014 02:24 4,9 C 3,3 C 94 % 1006,3 hPa 0,0 l/m 0 min 0 min 0,0 UV-I 0 W/m 23,2 km/h (4 Bft)
26.01.2014 02:26 4,9 C 3,3 C 94 % 1006,3 hPa 0,0 l/m 0 min 0 min 0,0 UV-I 0 W/m 30,9 km/h (5 Bft)
26.01.2014 02:28 4,9 C 3,3 C 94 % 1006,4 hPa 0,0 l/m 0 min 0 min 0,0 UV-I 0 W/m 23,2 km/h (4 Bft)
26.01.2014 02:30 4,9 C 3,3 C 94 % 1006,4 hPa 0,0 l/m 0 min 0 min 0,0 UV-I 0 W/m 28,3 km/h (4 Bft)
26.01.2014 02:32 4,9 C 3,3 C 94 % 1006,3 hPa 0,0 l/m 0 min 0 min 0,0 UV-I 0 W/m 28,3 km/h (4 Bft)
26.01.2014 02:34 4,9 C 3,3 C 93 % 1006,4 hPa 0,0 l/m 0 min 0 min 0,0 UV-I 0 W/m 23,2 km/h (4 Bft)
26.01.2014 02:36 4,9 C 3,3 C 93 % 1006,5 hPa 0,0 l/m 0 min 0 min 0,0 UV-I 0 W/m 12,9 km/h (3 Bft)
26.01.2014 02:38 5,0 C 3,3 C 93 % 1006,5 hPa 0,0 l/m 0 min 0 min 0,0 UV-I 0 W/m 20,6 km/h (4 Bft)
26.01.2014 02:40 5,0 C 3,3 C 93 % 1006,6 hPa 0,0 l/m 0 min 0 min 0,0 UV-I 0 W/m 23,2 km/h (4 Bft)
26.01.2014 02:42 5,0 C 3,3 C 93 % 1006,7 hPa 0,0 l/m 0 min 0 min 0,0 UV-I 0 W/m 25,7 km/h (4 Bft)
26.01.2014 02:44 5,0 C 3,3 C 93 % 1006,7 hPa 0,0 l/m 0 min 0 min 0,0 UV-I 0 W/m 30,9 km/h (5 Bft)
26.01.2014 02:46 5,1 C 3,3 C 92 % 1006,8 hPa 0,0 l/m 0 min 0 min 0,0 UV-I 0 W/m 18,0 km/h (3 Bft)
26.01.2014 02:48 5,1 C 3,3 C 93 % 1006,8 hPa 0,0 l/m 0 min 0 min 0,0 UV-I 0 W/m 28,3 km/h (4 Bft)
26.01.2014 02:50 5,1 C 3,3 C 92 % 1006,8 hPa 0,0 l/m 0 min 0 min 0,0 UV-I 0 W/m 23,2 km/h (4 Bft)
26.01.2014 02:52 5,1 C 3,3 C 92 % 1006,9 hPa 0,0 l/m 0 min 0 min 0,0 UV-I 0 W/m 15,4 km/h (3 Bft)
26.01.2014 02:54 5,1 C 3,3 C 92 % 1006,9 hPa 0,0 l/m 0 min 0 min 0,0 UV-I 0 W/m 20,6 km/h (4 Bft)
26.01.2014 02:56 5,1 C 3,3 C 92 % 1006,9 hPa 0,0 l/m 0 min 0 min 0,0 UV-I 0 W/m 15,4 km/h (3 Bft)
26.01.2014 02:58 5,2 C 3,3 C 91 % 1007,0 hPa 0,0 l/m 0 min 0 min 0,0 UV-I 0 W/m 20,6 km/h (4 Bft)
26.01.2014 03:00 5,2 C 3,3 C 91 % 1007,0 hPa 0,0 l/m 0 min 0 min 0,0 UV-I 0 W/m 25,7 km/h (4 Bft)
26.01.2014 03:02 5,2 C 3,3 C 91 % 1007,2 hPa 0,0 l/m 0 min 2 min 0,0 UV-I 0 W/m 30,9 km/h (5 Bft)
26.01.2014 03:04 5,2 C 3,3 C 91 % 1007,2 hPa 0,0 l/m 0 min 2 min 0,0 UV-I 0 W/m 18,0 km/h (3 Bft)
26.01.2014 03:06 5,2 C 3,3 C 91 % 1007,2 hPa 0,0 l/m 0 min 2 min 0,0 UV-I 0 W/m 7,7 km/h (2 Bft)
26.01.2014 03:08 5,2 C 3,3 C 91 % 1007,3 hPa 0,0 l/m 0 min 2 min 0,0 UV-I 0 W/m 30,9 km/h (5 Bft)
26.01.2014 03:10 5,2 C 3,3 C 91 % 1007,3 hPa 0,0 l/m 0 min 2 min 0,0 UV-I 0 W/m 15,4 km/h (3 Bft)
26.01.2014 03:12 5,2 C 3,3 C 91 % 1007,4 hPa 0,0 l/m 0 min 2 min 0,0 UV-I 0 W/m 20,6 km/h (4 Bft)
26.01.2014 03:14 5,2 C 3,3 C 91 % 1007,5 hPa 0,0 l/m 0 min 2 min 0,0 UV-I 0 W/m 23,2 km/h (4 Bft)
26.01.2014 03:16 5,2 C 3,3 C 91 % 1007,6 hPa 0,0 l/m 0 min 2 min 0,0 UV-I 0 W/m 33,5 km/h (5 Bft)
26.01.2014 03:18 5,2 C 3,3 C 91 % 1007,8 hPa 0,0 l/m 0 min 2 min 0,0 UV-I 0 W/m 36,0 km/h (5 Bft)
26.01.2014 03:20 5,2 C 3,3 C 91 % 1007,8 hPa 0,2 l/m 0 min 2 min 0,0 UV-I 0 W/m 18,0 km/h (3 Bft)
26.01.2014 03:22 5,2 C 3,3 C 91 % 1007,7 hPa 0,0 l/m 0 min 2 min 0,0 UV-I 0 W/m 23,2 km/h (4 Bft)
26.01.2014 03:24 5,2 C 3,3 C 91 % 1007,7 hPa 0,0 l/m 0 min 2 min 0,0 UV-I 0 W/m 12,9 km/h (3 Bft)
26.01.2014 03:26 5,1 C 2,8 C 91 % 1007,8 hPa 0,2 l/m 0 min 2 min 0,0 UV-I 0 W/m 15,4 km/h (3 Bft)
26.01.2014 03:28 5,1 C 2,8 C 91 % 1007,8 hPa 0,0 l/m 0 min 2 min 0,0 UV-I 0 W/m 33,5 km/h (5 Bft)
26.01.2014 03:30 5,1 C 2,8 C 91 % 1007,9 hPa 0,0 l/m 0 min 2 min 0,0 UV-I 0 W/m 18,0 km/h (3 Bft)
26.01.2014 03:32 5,0 C 2,8 C 92 % 1007,9 hPa 0,0 l/m 0 min 2 min 0,0 UV-I 0 W/m 20,6 km/h (4 Bft)
26.01.2014 03:34 4,9 C 2,8 C 92 % 1007,9 hPa 0,0 l/m 0 min 0 min 0,0 UV-I 0 W/m 25,7 km/h (4 Bft)
26.01.2014 03:36 4,9 C 2,8 C 92 % 1007,9 hPa 0,0 l/m 0 min 0 min 0,0 UV-I 0 W/m 25,7 km/h (4 Bft)
26.01.2014 03:38 4,9 C 2,8 C 92 % 1008,0 hPa 0,0 l/m 0 min 0 min 0,0 UV-I 0 W/m 25,7 km/h (4 Bft)
26.01.2014 03:40 4,9 C 2,8 C 92 % 1008,0 hPa 0,0 l/m 0 min 0 min 0,0 UV-I 0 W/m 12,9 km/h (3 Bft)
26.01.2014 03:42 4,8 C 2,8 C 92 % 1008,1 hPa 0,0 l/m 0 min 0 min 0,0 UV-I 0 W/m 25,7 km/h (4 Bft)
26.01.2014 03:44 4,8 C 2,8 C 92 % 1008,1 hPa 0,0 l/m 0 min 0 min 0,0 UV-I 0 W/m 7,7 km/h (2 Bft)
26.01.2014 03:46 4,8 C 2,8 C 92 % 1007,9 hPa 0,0 l/m 0 min 0 min 0,0 UV-I 0 W/m 12,9 km/h (3 Bft)
26.01.2014 03:48 4,8 C 2,8 C 92 % 1008,1 hPa 0,0 l/m 0 min 0 min 0,0 UV-I 0 W/m 23,2 km/h (4 Bft)
26.01.2014 03:50 4,8 C 2,8 C 92 % 1008,2 hPa 0,0 l/m 0 min 0 min 0,0 UV-I 0 W/m 12,9 km/h (3 Bft)
26.01.2014 03:52 4,8 C 2,8 C 92 % 1008,3 hPa 0,0 l/m 0 min 0 min 0,0 UV-I 0 W/m 25,7 km/h (4 Bft)
26.01.2014 03:54 4,8 C 2,8 C 92 % 1008,2 hPa 0,0 l/m 0 min 0 min 0,0 UV-I 0 W/m 18,0 km/h (3 Bft)
26.01.2014 03:56 4,8 C 2,8 C 92 % 1008,3 hPa 0,0 l/m 0 min 2 min 0,0 UV-I 0 W/m 25,7 km/h (4 Bft)
26.01.2014 03:58 4,8 C 2,8 C 92 % 1008,4 hPa 0,0 l/m 0 min 0 min 0,0 UV-I 0 W/m 38,6 km/h (5 Bft)
26.01.2014 04:00 4,8 C 2,8 C 92 % 1008,5 hPa 0,0 l/m 0 min 0 min 0,0 UV-I 0 W/m 30,9 km/h (5 Bft)
26.01.2014 04:02 4,8 C 2,8 C 92 % 1008,5 hPa 0,0 l/m 0 min 0 min 0,0 UV-I 0 W/m 12,9 km/h (3 Bft)
26.01.2014 04:04 4,8 C 2,8 C 92 % 1008,6 hPa 0,0 l/m 0 min 0 min 0,0 UV-I 0 W/m 18,0 km/h (3 Bft)
26.01.2014 04:06 4,8 C 2,8 C 91 % 1008,6 hPa 0,0 l/m 0 min 0 min 0,0 UV-I 0 W/m 12,9 km/h (3 Bft)
26.01.2014 04:08 4,9 C 2,8 C 92 % 1008,6 hPa 0,0 l/m 0 min 2 min 0,0 UV-I 0 W/m 20,6 km/h (4 Bft)
26.01.2014 04:10 4,9 C 2,8 C 91 % 1008,7 hPa 0,0 l/m 0 min 2 min 0,0 UV-I 0 W/m 12,9 km/h (3 Bft)
26.01.2014 04:12 4,8 C 2,8 C 91 % 1008,7 hPa 0,0 l/m 0 min 0 min 0,0 UV-I 0 W/m 28,3 km/h (4 Bft)
26.01.2014 04:14 4,9 C 2,8 C 91 % 1008,9 hPa 0,0 l/m 0 min 0 min 0,0 UV-I 0 W/m 23,2 km/h (4 Bft)
26.01.2014 04:16 4,9 C 2,8 C 91 % 1008,9 hPa 0,0 l/m 0 min 2 min 0,0 UV-I 0 W/m 15,4 km/h (3 Bft)
26.01.2014 04:18 4,9 C 2,8 C 91 % 1008,8 hPa 0,0 l/m 0 min 2 min 0,0 UV-I 0 W/m 30,9 km/h (5 Bft)
26.01.2014 04:20 4,8 C 2,8 C 91 % 1008,9 hPa 0,0 l/m 0 min 2 min 0,0 UV-I 0 W/m 23,2 km/h (4 Bft)
26.01.2014 04:22 4,9 C 2,8 C 91 % 1009,0 hPa 0,0 l/m 0 min 2 min 0,0 UV-I 0 W/m 15,4 km/h (3 Bft)
26.01.2014 04:24 4,9 C 2,8 C 91 % 1009,1 hPa 0,0 l/m 0 min 2 min 0,0 UV-I 0 W/m 20,6 km/h (4 Bft)
26.01.2014 04:26 4,8 C 2,8 C 91 % 1009,1 hPa 0,0 l/m 0 min 2 min 0,0 UV-I 0 W/m 15,4 km/h (3 Bft)
26.01.2014 04:28 4,8 C 2,8 C 91 % 1009,1 hPa 0,0 l/m 0 min 2 min 0,0 UV-I 0 W/m 18,0 km/h (3 Bft)
26.01.2014 04:30 4,8 C 2,8 C 91 % 1009,1 hPa 0,0 l/m 0 min 2 min 0,0 UV-I 0 W/m 18,0 km/h (3 Bft)
26.01.2014 04:32 4,8 C 2,8 C 91 % 1009,0 hPa 0,0 l/m 0 min 2 min 0,0 UV-I 0 W/m 25,7 km/h (4 Bft)
26.01.2014 04:34 4,8 C 2,8 C 91 % 1009,2 hPa 0,0 l/m 0 min 2 min 0,0 UV-I 0 W/m 15,4 km/h (3 Bft)
26.01.2014 04:36 4,8 C 2,8 C 91 % 1009,3 hPa 0,0 l/m 0 min 0 min 0,0 UV-I 0 W/m 18,0 km/h (3 Bft)
26.01.2014 04:38 4,8 C 2,8 C 91 % 1009,3 hPa 0,0 l/m 0 min 0 min 0,0 UV-I 0 W/m 28,3 km/h (4 Bft)
26.01.2014 04:40 4,8 C 2,8 C 91 % 1009,2 hPa 0,0 l/m 0 min 0 min 0,0 UV-I 0 W/m 20,6 km/h (4 Bft)
26.01.2014 04:42 4,8 C 2,8 C 91 % 1009,2 hPa 0,0 l/m 0 min 0 min 0,0 UV-I 0 W/m 12,9 km/h (3 Bft)
26.01.2014 04:44 4,8 C 2,8 C 91 % 1009,2 hPa 0,0 l/m 0 min 0 min 0,0 UV-I 0 W/m 10,3 km/h (2 Bft)
26.01.2014 04:46 4,8 C 2,8 C 91 % 1009,2 hPa 0,0 l/m 0 min 2 min 0,0 UV-I 0 W/m 15,4 km/h (3 Bft)
26.01.2014 04:48 4,8 C 2,8 C 91 % 1009,3 hPa 0,0 l/m 0 min 0 min 0,0 UV-I 0 W/m 15,4 km/h (3 Bft)
26.01.2014 04:50 4,8 C 2,8 C 91 % 1009,4 hPa 0,0 l/m 0 min 0 min 0,0 UV-I 0 W/m 20,6 km/h (4 Bft)
26.01.2014 04:52 4,8 C 2,8 C 91 % 1009,4 hPa 0,0 l/m 0 min 0 min 0,0 UV-I 0 W/m 15,4 km/h (3 Bft)
26.01.2014 04:54 4,8 C 2,8 C 91 % 1009,4 hPa 0,0 l/m 0 min 0 min 0,0 UV-I 0 W/m 2,6 km/h (1 Bft)
26.01.2014 04:56 4,7 C 2,8 C 91 % 1009,4 hPa 0,0 l/m 0 min 0 min 0,0 UV-I 0 W/m 23,2 km/h (4 Bft)
26.01.2014 04:58 4,7 C 2,8 C 91 % 1009,3 hPa 0,0 l/m 0 min 0 min 0,0 UV-I 0 W/m 25,7 km/h (4 Bft)
26.01.2014 05:00 4,7 C 2,2 C 91 % 1009,4 hPa 0,0 l/m 0 min 0 min 0,0 UV-I 0 W/m 25,7 km/h (4 Bft)
26.01.2014 05:02 4,7 C 2,8 C 91 % 1009,4 hPa 0,0 l/m 0 min 0 min 0,0 UV-I 0 W/m 15,4 km/h (3 Bft)
26.01.2014 05:04 4,7 C 2,8 C 91 % 1009,4 hPa 0,0 l/m 0 min 0 min 0,0 UV-I 0 W/m 25,7 km/h (4 Bft)
26.01.2014 05:06 4,7 C 2,8 C 91 % 1009,5 hPa 0,0 l/m 0 min 0 min 0,0 UV-I 0 W/m 15,4 km/h (3 Bft)
26.01.2014 05:08 4,7 C 2,8 C 91 % 1009,5 hPa 0,0 l/m 0 min 0 min 0,0 UV-I 0 W/m 18,0 km/h (3 Bft)
26.01.2014 05:10 4,7 C 2,8 C 91 % 1009,4 hPa 0,0 l/m 0 min 0 min 0,0 UV-I 0 W/m 18,0 km/h (3 Bft)
26.01.2014 05:12 4,7 C 2,8 C 91 % 1009,4 hPa 0,0 l/m 0 min 0 min 0,0 UV-I 0 W/m 10,3 km/h (2 Bft)
26.01.2014 05:14 4,7 C 2,8 C 91 % 1009,4 hPa 0,0 l/m 0 min 0 min 0,0 UV-I 0 W/m 10,3 km/h (2 Bft)
26.01.2014 05:16 4,7 C 2,8 C 91 % 1009,5 hPa 0,0 l/m 0 min 0 min 0,0 UV-I 0 W/m 7,7 km/h (2 Bft)
26.01.2014 05:18 4,6 C 2,2 C 91 % 1009,5 hPa 0,0 l/m 0 min 0 min 0,0 UV-I 0 W/m 12,9 km/h (3 Bft)
26.01.2014 05:20 4,6 C 2,8 C 91 % 1009,5 hPa 0,0 l/m 0 min 0 min 0,0 UV-I 0 W/m 15,4 km/h (3 Bft)
26.01.2014 05:22 4,6 C 2,8 C 91 % 1009,6 hPa 0,0 l/m 0 min 0 min 0,0 UV-I 0 W/m 10,3 km/h (2 Bft)
26.01.2014 05:24 4,6 C 2,8 C 91 % 1009,5 hPa 0,0 l/m 0 min 0 min 0,0 UV-I 0 W/m 15,4 km/h (3 Bft)
26.01.2014 05:26 4,6 C 2,8 C 91 % 1009,6 hPa 0,0 l/m 0 min 0 min 0,0 UV-I 0 W/m 7,7 km/h (2 Bft)
26.01.2014 05:28 4,6 C 2,8 C 91 % 1009,4 hPa 0,0 l/m 0 min 0 min 0,0 UV-I 0 W/m 12,9 km/h (3 Bft)
26.01.2014 05:30 4,6 C 2,8 C 91 % 1009,5 hPa 0,0 l/m 0 min 0 min 0,0 UV-I 0 W/m 7,7 km/h (2 Bft)
26.01.2014 05:32 4,6 C 2,8 C 91 % 1009,4 hPa 0,0 l/m 0 min 0 min 0,0 UV-I 0 W/m 7,7 km/h (2 Bft)
26.01.2014 05:34 4,6 C 2,8 C 91 % 1009,5 hPa 0,0 l/m 0 min 0 min 0,0 UV-I 0 W/m 7,7 km/h (2 Bft)
26.01.2014 05:36 4,5 C 2,2 C 91 % 1009,5 hPa 0,0 l/m 0 min 0 min 0,0 UV-I 0 W/m 15,4 km/h (3 Bft)
26.01.2014 05:38 4,5 C 2,2 C 91 % 1009,5 hPa 0,0 l/m 0 min 0 min 0,0 UV-I 0 W/m 7,7 km/h (2 Bft)
26.01.2014 05:40 4,4 C 2,2 C 91 % 1009,6 hPa 0,0 l/m 0 min 0 min 0,0 UV-I 0 W/m 12,9 km/h (3 Bft)
26.01.2014 05:42 4,4 C 2,8 C 91 % 1009,7 hPa 0,0 l/m 0 min 0 min 0,0 UV-I 0 W/m 12,9 km/h (3 Bft)
26.01.2014 05:44 4,4 C 2,2 C 91 % 1009,8 hPa 0,0 l/m 0 min 0 min 0,0 UV-I 0 W/m 0,0 km/h (0 Bft)
26.01.2014 05:46 4,4 C 2,2 C 91 % 1009,8 hPa 0,0 l/m 0 min 0 min 0,0 UV-I 0 W/m 10,3 km/h (2 Bft)
26.01.2014 05:48 4,4 C 2,2 C 91 % 1009,7 hPa 0,0 l/m 0 min 0 min 0,0 UV-I 0 W/m 12,9 km/h (3 Bft)
26.01.2014 05:50 4,4 C 2,2 C 91 % 1009,7 hPa 0,0 l/m 0 min 0 min 0,0 UV-I 0 W/m 0,0 km/h (0 Bft)
26.01.2014 05:52 4,4 C 2,2 C 91 % 1009,8 hPa 0,0 l/m 0 min 0 min 0,0 UV-I 0 W/m 7,7 km/h (2 Bft)
26.01.2014 05:54 4,3 C 2,2 C 91 % 1009,8 hPa 0,0 l/m 0 min 0 min 0,0 UV-I 0 W/m 12,9 km/h (3 Bft)
26.01.2014 05:56 4,3 C 2,2 C 91 % 1009,8 hPa 0,0 l/m 0 min 0 min 0,0 UV-I 0 W/m 15,4 km/h (3 Bft)
26.01.2014 05:58 4,3 C 2,2 C 91 % 1009,9 hPa 0,0 l/m 0 min 0 min 0,0 UV-I 0 W/m 12,9 km/h (3 Bft)
26.01.2014 06:00 4,3 C 2,2 C 91 % 1009,9 hPa 0,0 l/m 0 min 0 min 0,0 UV-I 0 W/m 7,7 km/h (2 Bft)
26.01.2014 06:02 4,3 C 2,2 C 91 % 1009,9 hPa 0,0 l/m 0 min 0 min 0,0 UV-I 0 W/m 23,2 km/h (4 Bft)
26.01.2014 06:04 4,2 C 2,2 C 91 % 1009,7 hPa 0,0 l/m 0 min 0 min 0,0 UV-I 0 W/m 15,4 km/h (3 Bft)
26.01.2014 06:06 4,2 C 2,2 C 92 % 1009,9 hPa 0,0 l/m 0 min 0 min 0,0 UV-I 0 W/m 23,2 km/h (4 Bft)
26.01.2014 06:08 4,2 C 2,2 C 92 % 1009,9 hPa 0,0 l/m 0 min 0 min 0,0 UV-I 0 W/m 20,6 km/h (4 Bft)
26.01.2014 06:10 4,2 C 2,2 C 92 % 1009,9 hPa 0,0 l/m 0 min 0 min 0,0 UV-I 0 W/m 20,6 km/h (4 Bft)
26.01.2014 06:12 4,2 C 2,2 C 92 % 1010,0 hPa 0,0 l/m 0 min 0 min 0,0 UV-I 0 W/m 7,7 km/h (2 Bft)
26.01.2014 06:14 4,2 C 2,2 C 92 % 1010,0 hPa 0,0 l/m 0 min 0 min 0,0 UV-I 0 W/m 10,3 km/h (2 Bft)
26.01.2014 06:16 4,2 C 2,2 C 92 % 1010,1 hPa 0,0 l/m 0 min 0 min 0,0 UV-I 0 W/m 12,9 km/h (3 Bft)
26.01.2014 06:18 4,2 C 2,2 C 92 % 1010,0 hPa 0,0 l/m 0 min 0 min 0,0 UV-I 0 W/m 2,6 km/h (1 Bft)
26.01.2014 06:20 4,2 C 2,2 C 92 % 1010,0 hPa 0,0 l/m 0 min 0 min 0,0 UV-I 0 W/m 23,2 km/h (4 Bft)
26.01.2014 06:22 4,1 C 2,2 C 92 % 1010,0 hPa 0,0 l/m 0 min 0 min 0,0 UV-I 0 W/m 15,4 km/h (3 Bft)
26.01.2014 06:24 4,1 C 2,2 C 92 % 1010,0 hPa 0,0 l/m 0 min 0 min 0,0 UV-I 0 W/m 15,4 km/h (3 Bft)
26.01.2014 06:26 4,1 C 2,2 C 92 % 1010,0 hPa 0,0 l/m 0 min 0 min 0,0 UV-I 0 W/m 10,3 km/h (2 Bft)
26.01.2014 06:28 4,1 C 2,2 C 91 % 1010,1 hPa 0,0 l/m 0 min 0 min 0,0 UV-I 0 W/m 20,6 km/h (4 Bft)
26.01.2014 06:30 4,0 C 2,2 C 91 % 1010,2 hPa 0,0 l/m 0 min 0 min 0,0 UV-I 0 W/m 12,9 km/h (3 Bft)
26.01.2014 06:32 4,0 C 2,2 C 91 % 1010,2 hPa 0,0 l/m 0 min 0 min 0,0 UV-I 0 W/m 7,7 km/h (2 Bft)
26.01.2014 06:34 4,0 C 2,2 C 91 % 1010,3 hPa 0,0 l/m 0 min 0 min 0,0 UV-I 0 W/m 12,9 km/h (3 Bft)
26.01.2014 06:36 4,0 C 2,2 C 91 % 1010,3 hPa 0,0 l/m 0 min 0 min 0,0 UV-I 0 W/m 7,7 km/h (2 Bft)
26.01.2014 06:38 4,0 C 2,2 C 91 % 1010,3 hPa 0,0 l/m 0 min 0 min 0,0 UV-I 0 W/m 10,3 km/h (2 Bft)
26.01.2014 06:40 3,9 C 2,2 C 92 % 1010,3 hPa 0,0 l/m 0 min 0 min 0,0 UV-I 0 W/m 10,3 km/h (2 Bft)
26.01.2014 06:42 3,9 C 2,2 C 92 % 1010,3 hPa 0,0 l/m 0 min 0 min 0,0 UV-I 0 W/m 15,4 km/h (3 Bft)
26.01.2014 06:44 3,9 C 2,2 C 92 % 1010,2 hPa 0,0 l/m 0 min 0 min 0,0 UV-I 0 W/m 15,4 km/h (3 Bft)
26.01.2014 06:46 3,9 C 2,2 C 92 % 1010,3 hPa 0,0 l/m 0 min 0 min 0,0 UV-I 0 W/m 12,9 km/h (3 Bft)
26.01.2014 06:48 3,9 C 2,2 C 92 % 1010,4 hPa 0,0 l/m 0 min 0 min 0,0 UV-I 0 W/m 15,4 km/h (3 Bft)
26.01.2014 06:50 3,9 C 2,2 C 92 % 1010,5 hPa 0,0 l/m 0 min 0 min 0,0 UV-I 0 W/m 10,3 km/h (2 Bft)
26.01.2014 06:52 3,9 C 2,2 C 92 % 1010,5 hPa 0,0 l/m 0 min 0 min 0,0 UV-I 0 W/m 12,9 km/h (3 Bft)
26.01.2014 06:54 3,9 C 2,2 C 92 % 1010,4 hPa 0,0 l/m 0 min 0 min 0,0 UV-I 0 W/m 7,7 km/h (2 Bft)
26.01.2014 06:56 3,9 C 2,2 C 92 % 1010,5 hPa 0,0 l/m 0 min 0 min 0,0 UV-I 0 W/m 10,3 km/h (2 Bft)
26.01.2014 06:58 3,9 C 2,2 C 92 % 1010,5 hPa 0,0 l/m 0 min 0 min 0,0 UV-I 0 W/m 20,6 km/h (4 Bft)
26.01.2014 07:00 3,9 C 2,2 C 92 % 1010,5 hPa 0,0 l/m 0 min 0 min 0,0 UV-I 0 W/m 15,4 km/h (3 Bft)
26.01.2014 07:02 3,9 C 2,2 C 92 % 1010,5 hPa 0,0 l/m 0 min 0 min 0,0 UV-I 0 W/m 7,7 km/h (2 Bft)
26.01.2014 07:04 3,9 C 2,2 C 92 % 1010,4 hPa 0,0 l/m 0 min 0 min 0,0 UV-I 0 W/m 12,9 km/h (3 Bft)
26.01.2014 07:06 3,9 C 2,2 C 92 % 1010,5 hPa 0,0 l/m 0 min 0 min 0,0 UV-I 0 W/m 10,3 km/h (2 Bft)
26.01.2014 07:08 3,9 C 2,2 C 92 % 1010,5 hPa 0,0 l/m 0 min 0 min 0,0 UV-I 0 W/m 18,0 km/h (3 Bft)
26.01.2014 07:10 3,9 C 2,2 C 92 % 1010,5 hPa 0,0 l/m 0 min 0 min 0,0 UV-I 0 W/m 12,9 km/h (3 Bft)
26.01.2014 07:12 3,9 C 2,2 C 92 % 1010,6 hPa 0,0 l/m 0 min 0 min 0,0 UV-I 0 W/m 10,3 km/h (2 Bft)
26.01.2014 07:14 3,9 C 2,2 C 92 % 1010,6 hPa 0,0 l/m 0 min 0 min 0,0 UV-I 0 W/m 7,7 km/h (2 Bft)
26.01.2014 07:16 3,9 C 2,2 C 92 % 1010,7 hPa 0,0 l/m 0 min 0 min 0,0 UV-I 0 W/m 7,7 km/h (2 Bft)
26.01.2014 07:18 3,9 C 2,2 C 92 % 1010,7 hPa 0,0 l/m 0 min 0 min 0,0 UV-I 0 W/m 12,9 km/h (3 Bft)
26.01.2014 07:20 3,9 C 2,2 C 92 % 1010,7 hPa 0,0 l/m 0 min 0 min 0,0 UV-I 0 W/m 15,4 km/h (3 Bft)
26.01.2014 07:22 3,9 C 2,2 C 92 % 1010,7 hPa 0,0 l/m 0 min 0 min 0,0 UV-I 0 W/m 5,1 km/h (1 Bft)
26.01.2014 07:24 3,9 C 2,2 C 92 % 1010,6 hPa 0,0 l/m 0 min 0 min 0,0 UV-I 0 W/m 10,3 km/h (2 Bft)
26.01.2014 07:26 3,8 C 2,2 C 92 % 1010,7 hPa 0,0 l/m 0 min 0 min 0,0 UV-I 0 W/m 10,3 km/h (2 Bft)
26.01.2014 07:28 3,9 C 2,2 C 92 % 1010,7 hPa 0,0 l/m 0 min 0 min 0,0 UV-I 0 W/m 12,9 km/h (3 Bft)
26.01.2014 07:30 3,9 C 2,2 C 92 % 1010,7 hPa 0,0 l/m 0 min 0 min 0,0 UV-I 0 W/m 10,3 km/h (2 Bft)
26.01.2014 07:32 3,9 C 2,2 C 92 % 1010,7 hPa 0,0 l/m 0 min 0 min 0,0 UV-I 0 W/m 15,4 km/h (3 Bft)
26.01.2014 07:34 3,9 C 2,2 C 92 % 1010,7 hPa 0,0 l/m 0 min 0 min 0,0 UV-I 0 W/m 7,7 km/h (2 Bft)
26.01.2014 07:36 3,9 C 2,2 C 92 % 1010,7 hPa 0,0 l/m 0 min 0 min 0,0 UV-I 0 W/m 10,3 km/h (2 Bft)
26.01.2014 07:38 3,9 C 2,2 C 92 % 1010,7 hPa 0,0 l/m 0 min 0 min 0,0 UV-I 0 W/m 10,3 km/h (2 Bft)
26.01.2014 07:40 3,9 C 2,2 C 92 % 1010,7 hPa 0,0 l/m 0 min 0 min 0,0 UV-I 0 W/m 12,9 km/h (3 Bft)
26.01.2014 07:42 3,9 C 2,8 C 92 % 1010,7 hPa 0,0 l/m 0 min 0 min 0,0 UV-I 0 W/m 7,7 km/h (2 Bft)
26.01.2014 07:44 3,9 C 2,8 C 92 % 1010,8 hPa 0,0 l/m 0 min 0 min 0,0 UV-I 0 W/m 18,0 km/h (3 Bft)
26.01.2014 07:46 3,9 C 2,8 C 92 % 1010,8 hPa 0,0 l/m 0 min 0 min 0,0 UV-I 0 W/m 12,9 km/h (3 Bft)
26.01.2014 07:48 4,0 C 2,8 C 92 % 1010,9 hPa 0,0 l/m 0 min 0 min 0,0 UV-I 0 W/m 20,6 km/h (4 Bft)
26.01.2014 07:50 4,0 C 2,8 C 92 % 1010,9 hPa 0,0 l/m 0 min 0 min 0,0 UV-I 0 W/m 10,3 km/h (2 Bft)
26.01.2014 07:52 4,0 C 2,8 C 92 % 1010,9 hPa 0,0 l/m 0 min 0 min 0,0 UV-I 0 W/m 10,3 km/h (2 Bft)
26.01.2014 07:54 4,1 C 2,8 C 92 % 1010,9 hPa 0,0 l/m 0 min 0 min 0,0 UV-I 0 W/m 15,4 km/h (3 Bft)
26.01.2014 07:56 4,1 C 2,8 C 93 % 1010,9 hPa 0,0 l/m 0 min 0 min 0,0 UV-I 0 W/m 7,7 km/h (2 Bft)
26.01.2014 07:58 4,1 C 2,8 C 93 % 1011,0 hPa 0,0 l/m 0 min 0 min 0,0 UV-I 0 W/m 7,7 km/h (2 Bft)
26.01.2014 08:00 4,1 C 2,8 C 93 % 1010,9 hPa 0,0 l/m 0 min 0 min 0,0 UV-I 0 W/m 10,3 km/h (2 Bft)
26.01.2014 08:02 4,1 C 2,8 C 93 % 1011,0 hPa 0,0 l/m 0 min 0 min 0,0 UV-I 0 W/m 12,9 km/h (3 Bft)
26.01.2014 08:04 4,2 C 2,8 C 92 % 1010,9 hPa 0,0 l/m 0 min 0 min 0,0 UV-I 0 W/m 15,4 km/h (3 Bft)
26.01.2014 08:06 4,2 C 2,8 C 92 % 1010,8 hPa 0,0 l/m 0 min 0 min 0,0 UV-I 0 W/m 25,7 km/h (4 Bft)
26.01.2014 08:08 4,2 C 2,8 C 92 % 1010,9 hPa 0,0 l/m 0 min 0 min 0,0 UV-I 0 W/m 12,9 km/h (3 Bft)
26.01.2014 08:10 4,2 C 2,8 C 92 % 1010,9 hPa 0,0 l/m 0 min 0 min 0,0 UV-I 0 W/m 15,4 km/h (3 Bft)
26.01.2014 08:12 4,2 C 2,8 C 92 % 1010,8 hPa 0,0 l/m 0 min 0 min 0,0 UV-I 0 W/m 20,6 km/h (4 Bft)
26.01.2014 08:14 4,2 C 2,8 C 92 % 1010,8 hPa 0,0 l/m 0 min 0 min 0,0 UV-I 0 W/m 10,3 km/h (2 Bft)
26.01.2014 08:16 4,2 C 2,8 C 92 % 1010,8 hPa 0,0 l/m 0 min 0 min 0,0 UV-I 0 W/m 12,9 km/h (3 Bft)
26.01.2014 08:18 4,2 C 2,8 C 92 % 1010,8 hPa 0,0 l/m 0 min 0 min 0,0 UV-I 0 W/m 12,9 km/h (3 Bft)
26.01.2014 08:20 4,2 C 2,8 C 92 % 1010,8 hPa 0,0 l/m 0 min 0 min 0,0 UV-I 0 W/m 10,3 km/h (2 Bft)
26.01.2014 08:22 4,3 C 2,8 C 92 % 1010,8 hPa 0,0 l/m 0 min 0 min 0,0 UV-I 0 W/m 10,3 km/h (2 Bft)
26.01.2014 08:24 4,3 C 2,8 C 92 % 1010,7 hPa 0,0 l/m 0 min 0 min 0,0 UV-I 0 W/m 7,7 km/h (2 Bft)
26.01.2014 08:26 4,3 C 2,8 C 92 % 1010,8 hPa 0,0 l/m 0 min 0 min 0,0 UV-I 0 W/m 10,3 km/h (2 Bft)
26.01.2014 08:28 4,3 C 2,8 C 92 % 1010,8 hPa 0,0 l/m 0 min 0 min 0,0 UV-I 0 W/m 5,1 km/h (1 Bft)
26.01.2014 08:30 4,3 C 2,8 C 92 % 1010,8 hPa 0,0 l/m 0 min 0 min 0,0 UV-I 0 W/m 2,6 km/h (1 Bft)
26.01.2014 08:32 4,3 C 2,8 C 92 % 1010,8 hPa 0,0 l/m 0 min 0 min 0,0 UV-I 0 W/m 20,6 km/h (4 Bft)
26.01.2014 08:34 4,3 C 2,8 C 92 % 1010,7 hPa 0,0 l/m 0 min 0 min 0,0 UV-I 5 W/m 7,7 km/h (2 Bft)
26.01.2014 08:36 4,3 C 2,8 C 92 % 1010,7 hPa 0,0 l/m 0 min 0 min 0,0 UV-I 5 W/m 5,1 km/h (1 Bft)
26.01.2014 08:38 4,3 C 2,8 C 92 % 1010,8 hPa 0,0 l/m 0 min 0 min 0,0 UV-I 5 W/m 12,9 km/h (3 Bft)
26.01.2014 08:40 4,3 C 2,8 C 92 % 1010,8 hPa 0,0 l/m 0 min 0 min 0,0 UV-I 5 W/m 10,3 km/h (2 Bft)
26.01.2014 08:42 4,3 C 2,8 C 91 % 1010,8 hPa 0,0 l/m 0 min 0 min 0,0 UV-I 5 W/m 10,3 km/h (2 Bft)
26.01.2014 08:44 4,3 C 2,8 C 91 % 1010,8 hPa 0,0 l/m 0 min 0 min 0,0 UV-I 7 W/m 7,7 km/h (2 Bft)
26.01.2014 08:46 4,3 C 2,8 C 91 % 1010,8 hPa 0,0 l/m 0 min 0 min 0,0 UV-I 7 W/m 10,3 km/h (2 Bft)
26.01.2014 08:48 4,3 C 2,8 C 91 % 1010,8 hPa 0,0 l/m 0 min 0 min 0,0 UV-I 9 W/m 0,0 km/h (0 Bft)
26.01.2014 08:50 4,3 C 2,8 C 91 % 1010,8 hPa 0,0 l/m 0 min 0 min 0,0 UV-I 7 W/m 0,0 km/h (0 Bft)
26.01.2014 08:52 4,3 C 2,8 C 91 % 1010,8 hPa 0,0 l/m 0 min 0 min 0,0 UV-I 7 W/m 10,3 km/h (2 Bft)
26.01.2014 08:54 4,3 C 2,8 C 91 % 1010,8 hPa 0,0 l/m 0 min 0 min 0,0 UV-I 9 W/m 7,7 km/h (2 Bft)
26.01.2014 08:56 4,3 C 2,8 C 91 % 1010,8 hPa 0,0 l/m 0 min 0 min 0,0 UV-I 9 W/m 15,4 km/h (3 Bft)
26.01.2014 08:58 4,3 C 2,8 C 91 % 1010,7 hPa 0,0 l/m 0 min 0 min 0,0 UV-I 7 W/m 2,6 km/h (1 Bft)
26.01.2014 09:00 4,3 C 2,8 C 91 % 1010,8 hPa 0,0 l/m 0 min 0 min 0,0 UV-I 7 W/m 10,3 km/h (2 Bft)
26.01.2014 09:02 4,3 C 2,8 C 91 % 1010,7 hPa 0,0 l/m 0 min 0 min 0,0 UV-I 9 W/m 18,0 km/h (3 Bft)
26.01.2014 09:04 4,3 C 2,8 C 91 % 1010,8 hPa 0,0 l/m 0 min 0 min 0,0 UV-I 11 W/m 15,4 km/h (3 Bft)
26.01.2014 09:06 4,3 C 2,8 C 91 % 1010,8 hPa 0,0 l/m 0 min 0 min 0,0 UV-I 12 W/m 12,9 km/h (3 Bft)
26.01.2014 09:08 4,3 C 2,8 C 91 % 1010,8 hPa 0,0 l/m 0 min 0 min 0,0 UV-I 16 W/m 7,7 km/h (2 Bft)
26.01.2014 09:10 4,3 C 2,8 C 91 % 1010,7 hPa 0,0 l/m 0 min 0 min 0,0 UV-I 18 W/m 5,1 km/h (1 Bft)
26.01.2014 09:12 4,4 C 3,3 C 91 % 1010,7 hPa 0,0 l/m 0 min 0 min 0,0 UV-I 19 W/m 0,0 km/h (0 Bft)
26.01.2014 09:14 4,3 C 3,3 C 91 % 1010,8 hPa 0,0 l/m 0 min 0 min 0,0 UV-I 19 W/m 7,7 km/h (2 Bft)
26.01.2014 09:16 4,4 C 3,3 C 91 % 1010,8 hPa 0,0 l/m 0 min 0 min 0,0 UV-I 18 W/m 12,9 km/h (3 Bft)
26.01.2014 09:18 4,4 C 3,3 C 91 % 1010,9 hPa 0,0 l/m 0 min 0 min 0,0 UV-I 18 W/m 10,3 km/h (2 Bft)
26.01.2014 09:20 4,4 C 3,3 C 91 % 1010,8 hPa 0,0 l/m 0 min 0 min 0,0 UV-I 18 W/m 5,1 km/h (1 Bft)
26.01.2014 09:22 4,4 C 3,3 C 91 % 1010,7 hPa 0,0 l/m 0 min 0 min 0,0 UV-I 21 W/m 0,0 km/h (0 Bft)
26.01.2014 09:24 4,4 C 3,3 C 91 % 1010,7 hPa 0,0 l/m 0 min 0 min 0,0 UV-I 23 W/m 0,0 km/h (0 Bft)
26.01.2014 09:26 4,4 C 3,3 C 91 % 1010,7 hPa 0,0 l/m 0 min 0 min 0,0 UV-I 21 W/m 2,6 km/h (1 Bft)
26.01.2014 09:28 4,4 C 3,3 C 91 % 1010,7 hPa 0,0 l/m 0 min 0 min 0,0 UV-I 23 W/m 2,6 km/h (1 Bft)
26.01.2014 09:30 4,4 C 3,3 C 91 % 1010,6 hPa 0,0 l/m 0 min 0 min 0,0 UV-I 28 W/m 0,0 km/h (0 Bft)
26.01.2014 09:32 4,4 C 3,3 C 91 % 1010,6 hPa 0,0 l/m 0 min 0 min 0,0 UV-I 30 W/m 20,6 km/h (4 Bft)
26.01.2014 09:34 4,4 C 3,3 C 91 % 1010,6 hPa 0,0 l/m 0 min 0 min 0,0 UV-I 32 W/m 10,3 km/h (2 Bft)
26.01.2014 09:36 4,4 C 3,3 C 91 % 1010,5 hPa 0,0 l/m 0 min 0 min 0,0 UV-I 37 W/m 5,1 km/h (1 Bft)
26.01.2014 09:38 4,4 C 3,3 C 91 % 1010,5 hPa 0,0 l/m 0 min 0 min 0,0 UV-I 40 W/m 10,3 km/h (2 Bft)
26.01.2014 09:40 4,5 C 3,3 C 91 % 1010,5 hPa 0,0 l/m 0 min 0 min 0,0 UV-I 44 W/m 10,3 km/h (2 Bft)
26.01.2014 09:42 4,5 C 3,3 C 91 % 1010,5 hPa 0,0 l/m 0 min 0 min 0,0 UV-I 46 W/m 15,4 km/h (3 Bft)
26.01.2014 09:44 4,5 C 3,3 C 91 % 1010,5 hPa 0,0 l/m 0 min 0 min 0,0 UV-I 53 W/m 15,4 km/h (3 Bft)
26.01.2014 09:46 4,6 C 3,3 C 91 % 1010,4 hPa 0,0 l/m 0 min 0 min 0,0 UV-I 58 W/m 18,0 km/h (3 Bft)
26.01.2014 09:48 4,6 C 3,3 C 91 % 1010,5 hPa 0,0 l/m 0 min 0 min 0,0 UV-I 67 W/m 15,4 km/h (3 Bft)
26.01.2014 09:50 4,6 C 3,9 C 91 % 1010,5 hPa 0,0 l/m 0 min 0 min 0,0 UV-I 72 W/m 12,9 km/h (3 Bft)
26.01.2014 09:52 4,7 C 3,9 C 91 % 1010,5 hPa 0,0 l/m 0 min 0 min 0,0 UV-I 77 W/m 7,7 km/h (2 Bft)
26.01.2014 09:54 4,7 C 3,9 C 91 % 1010,5 hPa 0,0 l/m 0 min 0 min 0,0 UV-I 74 W/m 15,4 km/h (3 Bft)
26.01.2014 09:56 4,7 C 3,9 C 91 % 1010,4 hPa 0,0 l/m 0 min 0 min 0,0 UV-I 69 W/m 7,7 km/h (2 Bft)
26.01.2014 09:58 4,7 C 3,9 C 90 % 1010,4 hPa 0,0 l/m 0 min 0 min 0,0 UV-I 72 W/m 7,7 km/h (2 Bft)
26.01.2014 10:00 4,8 C 3,9 C 90 % 1010,4 hPa 0,0 l/m 0 min 0 min 0,0 UV-I 72 W/m 7,7 km/h (2 Bft)
26.01.2014 10:02 4,8 C 3,9 C 90 % 1010,4 hPa 0,0 l/m 0 min 0 min 0,0 UV-I 72 W/m 7,7 km/h (2 Bft)
26.01.2014 10:04 4,8 C 3,9 C 90 % 1010,3 hPa 0,0 l/m 0 min 0 min 0,0 UV-I 69 W/m 15,4 km/h (3 Bft)
26.01.2014 10:06 4,8 C 3,9 C 90 % 1010,4 hPa 0,0 l/m 0 min 0 min 0,0 UV-I 67 W/m 12,9 km/h (3 Bft)
26.01.2014 10:08 4,8 C 3,9 C 90 % 1010,2 hPa 0,0 l/m 0 min 0 min 0,0 UV-I 74 W/m 15,4 km/h (3 Bft)
26.01.2014 10:10 4,8 C 3,9 C 90 % 1010,2 hPa 0,0 l/m 0 min 0 min 0,0 UV-I 72 W/m 15,4 km/h (3 Bft)
26.01.2014 10:12 4,8 C 3,9 C 90 % 1010,1 hPa 0,0 l/m 0 min 0 min 0,0 UV-I 79 W/m 20,6 km/h (4 Bft)
26.01.2014 10:14 4,9 C 3,9 C 90 % 1010,1 hPa 0,0 l/m 0 min 0 min 0,0 UV-I 81 W/m 10,3 km/h (2 Bft)
26.01.2014 10:16 4,9 C 3,9 C 90 % 1010,1 hPa 0,0 l/m 0 min 0 min 0,0 UV-I 74 W/m 10,3 km/h (2 Bft)
26.01.2014 10:18 4,8 C 3,9 C 90 % 1010,0 hPa 0,0 l/m 0 min 0 min 0,0 UV-I 65 W/m 12,9 km/h (3 Bft)
26.01.2014 10:20 4,8 C 3,9 C 90 % 1010,1 hPa 0,0 l/m 0 min 0 min 0,0 UV-I 63 W/m 18,0 km/h (3 Bft)
26.01.2014 10:22 4,8 C 3,9 C 90 % 1010,1 hPa 0,0 l/m 0 min 0 min 0,0 UV-I 69 W/m 23,2 km/h (4 Bft)
26.01.2014 10:24 4,8 C 3,9 C 90 % 1010,1 hPa 0,0 l/m 0 min 0 min 0,0 UV-I 93 W/m 25,7 km/h (4 Bft)
26.01.2014 10:26 4,8 C 3,9 C 90 % 1010,1 hPa 0,0 l/m 0 min 0 min 0,0 UV-I 97 W/m 20,6 km/h (4 Bft)
26.01.2014 10:28 4,9 C 3,9 C 90 % 1010,1 hPa 0,0 l/m 0 min 0 min 0,0 UV-I 97 W/m 12,9 km/h (3 Bft)
26.01.2014 10:30 4,9 C 3,9 C 90 % 1010,1 hPa 0,0 l/m 0 min 0 min 0,0 UV-I 100 W/m 12,9 km/h (3 Bft)
26.01.2014 10:32 4,9 C 3,9 C 90 % 1010,1 hPa 0,0 l/m 0 min 0 min 0,0 UV-I 97 W/m 15,4 km/h (3 Bft)
26.01.2014 10:34 4,9 C 3,9 C 90 % 1010,0 hPa 0,0 l/m 0 min 0 min 0,0 UV-I 100 W/m 12,9 km/h (3 Bft)
26.01.2014 10:36 4,9 C 3,9 C 90 % 1010,1 hPa 0,0 l/m 0 min 0 min 0,0 UV-I 98 W/m 10,3 km/h (2 Bft)
26.01.2014 10:38 4,9 C 3,9 C 89 % 1010,0 hPa 0,0 l/m 0 min 0 min 0,0 UV-I 91 W/m 18,0 km/h (3 Bft)
26.01.2014 10:40 5,0 C 3,9 C 89 % 1010,0 hPa 0,0 l/m 0 min 0 min 0,0 UV-I 86 W/m 12,9 km/h (3 Bft)
26.01.2014 10:42 5,0 C 3,9 C 89 % 1010,1 hPa 0,0 l/m 0 min 0 min 0,0 UV-I 79 W/m 15,4 km/h (3 Bft)
26.01.2014 10:44 5,0 C 3,9 C 89 % 1010,0 hPa 0,0 l/m 0 min 0 min 0,0 UV-I 83 W/m 10,3 km/h (2 Bft)
26.01.2014 10:46 5,0 C 4,4 C 89 % 1010,0 hPa 0,0 l/m 0 min 0 min 0,0 UV-I 86 W/m 12,9 km/h (3 Bft)
26.01.2014 10:48 5,0 C 4,4 C 89 % 1010,2 hPa 0,0 l/m 0 min 0 min 0,0 UV-I 81 W/m 20,6 km/h (4 Bft)
26.01.2014 10:50 5,0 C 4,4 C 89 % 1010,1 hPa 0,0 l/m 0 min 0 min 0,0 UV-I 79 W/m 7,7 km/h (2 Bft)
26.01.2014 10:52 5,0 C 4,4 C 89 % 1010,0 hPa 0,0 l/m 0 min 0 min 0,0 UV-I 91 W/m 7,7 km/h (2 Bft)
26.01.2014 10:54 5,1 C 4,4 C 89 % 1010,1 hPa 0,0 l/m 0 min 0 min 0,0 UV-I 97 W/m 15,4 km/h (3 Bft)
26.01.2014 10:56 5,1 C 4,4 C 89 % 1010,0 hPa 0,0 l/m 0 min 0 min 0,0 UV-I 109 W/m 7,7 km/h (2 Bft)
26.01.2014 10:58 5,1 C 4,4 C 89 % 1010,0 hPa 0,0 l/m 0 min 0 min 0,0 UV-I 125 W/m 7,7 km/h (2 Bft)
26.01.2014 11:00 5,1 C 4,4 C 89 % 1010,0 hPa 0,0 l/m 0 min 0 min 0,0 UV-I 125 W/m 15,4 km/h (3 Bft)
26.01.2014 11:02 5,1 C 4,4 C 89 % 1010,0 hPa 0,0 l/m 0 min 0 min 0,0 UV-I 139 W/m 5,1 km/h (1 Bft)
26.01.2014 11:04 5,2 C 4,4 C 89 % 1010,0 hPa 0,0 l/m 2 min 0 min 0,0 UV-I 223 W/m 7,7 km/h (2 Bft)
26.01.2014 11:06 5,3 C 4,4 C 89 % 1009,9 hPa 0,0 l/m 0 min 0 min 0,0 UV-I 134 W/m 7,7 km/h (2 Bft)
26.01.2014 11:08 5,3 C 4,4 C 89 % 1009,9 hPa 0,0 l/m 0 min 0 min 0,0 UV-I 137 W/m 10,3 km/h (2 Bft)
26.01.2014 11:10 5,3 C 4,4 C 89 % 1010,0 hPa 0,0 l/m 0 min 0 min 0,0 UV-I 128 W/m 18,0 km/h (3 Bft)
26.01.2014 11:12 5,3 C 4,4 C 89 % 1009,9 hPa 0,0 l/m 0 min 0 min 0,0 UV-I 141 W/m 7,7 km/h (2 Bft)
26.01.2014 11:14 5,3 C 5,0 C 89 % 1009,8 hPa 0,0 l/m 0 min 0 min 0,0 UV-I 148 W/m 10,3 km/h (2 Bft)
26.01.2014 11:16 5,3 C 5,0 C 89 % 1009,9 hPa 0,0 l/m 0 min 0 min 0,0 UV-I 144 W/m 10,3 km/h (2 Bft)
26.01.2014 11:18 5,3 C 5,0 C 89 % 1009,9 hPa 0,0 l/m 0 min 0 min 0,0 UV-I 148 W/m 15,4 km/h (3 Bft)
26.01.2014 11:20 5,4 C 5,0 C 89 % 1009,8 hPa 0,0 l/m 0 min 0 min 0,0 UV-I 160 W/m 12,9 km/h (3 Bft)
26.01.2014 11:22 5,4 C 5,0 C 89 % 1009,8 hPa 0,0 l/m 0 min 0 min 0,0 UV-I 169 W/m 12,9 km/h (3 Bft)
26.01.2014 11:24 5,4 C 5,0 C 89 % 1009,8 hPa 0,0 l/m 0 min 0 min 0,0 UV-I 120 W/m 2,6 km/h (1 Bft)
26.01.2014 11:26 5,4 C 4,4 C 89 % 1009,7 hPa 0,0 l/m 0 min 0 min 0,0 UV-I 104 W/m 5,1 km/h (1 Bft)
26.01.2014 11:28 5,4 C 5,0 C 89 % 1009,7 hPa 0,0 l/m 0 min 0 min 0,0 UV-I 116 W/m 5,1 km/h (1 Bft)
26.01.2014 11:30 5,4 C 5,0 C 89 % 1009,7 hPa 0,0 l/m 0 min 0 min 0,0 UV-I 118 W/m 0,0 km/h (0 Bft)
26.01.2014 11:32 5,5 C 5,0 C 89 % 1009,7 hPa 0,0 l/m 0 min 0 min 0,0 UV-I 114 W/m 10,3 km/h (2 Bft)
26.01.2014 11:34 5,5 C 5,0 C 89 % 1009,7 hPa 0,0 l/m 0 min 0 min 0,0 UV-I 104 W/m 7,7 km/h (2 Bft)
26.01.2014 11:36 5,4 C 5,0 C 89 % 1009,8 hPa 0,0 l/m 0 min 0 min 0,0 UV-I 90 W/m 7,7 km/h (2 Bft)
26.01.2014 11:38 5,5 C 5,0 C 89 % 1009,6 hPa 0,0 l/m 0 min 0 min 0,0 UV-I 86 W/m 5,1 km/h (1 Bft)
26.01.2014 11:40 5,5 C 5,0 C 89 % 1009,6 hPa 0,0 l/m 0 min 0 min 0,0 UV-I 90 W/m 7,7 km/h (2 Bft)
26.01.2014 11:42 5,4 C 5,0 C 89 % 1009,7 hPa 0,0 l/m 0 min 0 min 0,0 UV-I 114 W/m 10,3 km/h (2 Bft)
26.01.2014 11:44 5,4 C 4,4 C 88 % 1009,5 hPa 0,0 l/m 0 min 0 min 0,0 UV-I 134 W/m 12,9 km/h (3 Bft)
26.01.2014 11:46 5,4 C 4,4 C 88 % 1009,4 hPa 0,0 l/m 0 min 0 min 0,0 UV-I 111 W/m 10,3 km/h (2 Bft)
26.01.2014 11:48 5,4 C 4,4 C 88 % 1009,4 hPa 0,0 l/m 0 min 0 min 0,0 UV-I 104 W/m 10,3 km/h (2 Bft)
26.01.2014 11:50 5,4 C 5,0 C 88 % 1009,4 hPa 0,0 l/m 0 min 0 min 0,0 UV-I 109 W/m 5,1 km/h (1 Bft)
26.01.2014 11:52 5,4 C 5,0 C 88 % 1009,3 hPa 0,0 l/m 0 min 0 min 0,0 UV-I 102 W/m 7,7 km/h (2 Bft)
26.01.2014 11:54 5,4 C 5,0 C 88 % 1009,2 hPa 0,0 l/m 0 min 0 min 0,0 UV-I 105 W/m 12,9 km/h (3 Bft)
26.01.2014 11:56 5,4 C 5,0 C 88 % 1009,2 hPa 0,0 l/m 0 min 0 min 0,0 UV-I 113 W/m 5,1 km/h (1 Bft)
26.01.2014 11:58 5,5 C 5,0 C 88 % 1009,2 hPa 0,0 l/m 0 min 0 min 0,0 UV-I 128 W/m 2,6 km/h (1 Bft)
26.01.2014 12:00 5,5 C 5,0 C 88 % 1009,2 hPa 0,0 l/m 0 min 0 min 0,0 UV-I 135 W/m 15,4 km/h (3 Bft)
26.01.2014 12:02 5,5 C 5,0 C 88 % 1009,1 hPa 0,0 l/m 0 min 0 min 0,0 UV-I 148 W/m 5,1 km/h (1 Bft)
26.01.2014 12:04 5,5 C 5,0 C 88 % 1009,1 hPa 0,0 l/m 0 min 0 min 0,0 UV-I 172 W/m 0,0 km/h (0 Bft)
26.01.2014 12:06 5,6 C 5,0 C 88 % 1009,1 hPa 0,0 l/m 2 min 0 min 0,0 UV-I 199 W/m 12,9 km/h (3 Bft)
26.01.2014 12:08 5,6 C 5,6 C 88 % 1009,0 hPa 0,0 l/m 2 min 0 min 0,0 UV-I 192 W/m 7,7 km/h (2 Bft)
26.01.2014 12:10 5,7 C 5,6 C 88 % 1008,9 hPa 0,0 l/m 2 min 0 min 0,0 UV-I 237 W/m 5,1 km/h (1 Bft)
26.01.2014 12:12 5,7 C 5,6 C 88 % 1008,7 hPa 0,0 l/m 2 min 0 min 0,0 UV-I 207 W/m 10,3 km/h (2 Bft)
26.01.2014 12:14 5,8 C 5,6 C 87 % 1008,7 hPa 0,0 l/m 2 min 0 min 0,0 UV-I 229 W/m 10,3 km/h (2 Bft)
26.01.2014 12:16 5,7 C 5,0 C 87 % 1008,7 hPa 0,0 l/m 2 min 0 min 0,0 UV-I 234 W/m 10,3 km/h (2 Bft)
26.01.2014 12:18 5,8 C 5,0 C 87 % 1008,7 hPa 0,0 l/m 2 min 0 min 0,0 UV-I 236 W/m 10,3 km/h (2 Bft)
26.01.2014 12:20 5,8 C 5,6 C 87 % 1008,6 hPa 0,0 l/m 2 min 0 min 0,0 UV-I 234 W/m 5,1 km/h (1 Bft)
26.01.2014 12:22 5,9 C 5,6 C 87 % 1008,7 hPa 0,0 l/m 2 min 0 min 0,0 UV-I 221 W/m 10,3 km/h (2 Bft)
26.01.2014 12:24 5,9 C 5,0 C 87 % 1008,8 hPa 0,0 l/m 0 min 0 min 0,0 UV-I 172 W/m 18,0 km/h (3 Bft)
26.01.2014 12:26 5,8 C 5,0 C 86 % 1008,8 hPa 0,0 l/m 2 min 0 min 0,0 UV-I 230 W/m 7,7 km/h (2 Bft)
26.01.2014 12:28 5,8 C 5,0 C 86 % 1008,7 hPa 0,0 l/m 2 min 0 min 0,0 UV-I 237 W/m 7,7 km/h (2 Bft)
26.01.2014 12:30 5,8 C 5,0 C 86 % 1008,6 hPa 0,0 l/m 2 min 0 min 0,0 UV-I 230 W/m 10,3 km/h (2 Bft)
26.01.2014 12:32 5,8 C 5,0 C 86 % 1008,5 hPa 0,0 l/m 2 min 0 min 0,0 UV-I 200 W/m 7,7 km/h (2 Bft)
26.01.2014 12:34 5,8 C 5,0 C 86 % 1008,5 hPa 0,0 l/m 0 min 0 min 0,0 UV-I 190 W/m 10,3 km/h (2 Bft)
26.01.2014 12:36 5,8 C 5,0 C 86 % 1008,5 hPa 0,0 l/m 0 min 0 min 0,0 UV-I 162 W/m 7,7 km/h (2 Bft)
26.01.2014 12:38 5,8 C 5,0 C 86 % 1008,5 hPa 0,0 l/m 0 min 0 min 0,0 UV-I 176 W/m 5,1 km/h (1 Bft)
26.01.2014 12:40 5,8 C 5,6 C 86 % 1008,4 hPa 0,0 l/m 0 min 0 min 0,0 UV-I 181 W/m 5,1 km/h (1 Bft)
26.01.2014 12:42 5,9 C 5,6 C 87 % 1008,5 hPa 0,0 l/m 0 min 0 min 0,0 UV-I 185 W/m 7,7 km/h (2 Bft)
26.01.2014 12:44 5,9 C 5,6 C 86 % 1008,5 hPa 0,0 l/m 0 min 0 min 0,0 UV-I 186 W/m 12,9 km/h (3 Bft)
26.01.2014 12:46 5,9 C 5,6 C 86 % 1008,6 hPa 0,0 l/m 2 min 0 min 0,0 UV-I 195 W/m 12,9 km/h (3 Bft)
26.01.2014 12:48 5,9 C 5,6 C 86 % 1008,5 hPa 0,0 l/m 2 min 0 min 0,0 UV-I 197 W/m 7,7 km/h (2 Bft)
26.01.2014 12:50 6,0 C 5,6 C 86 % 1008,5 hPa 0,0 l/m 2 min 0 min 0,0 UV-I 204 W/m 0,0 km/h (0 Bft)
26.01.2014 12:52 6,1 C 5,6 C 86 % 1008,5 hPa 0,0 l/m 2 min 0 min 0,0 UV-I 211 W/m 10,3 km/h (2 Bft)
26.01.2014 12:54 6,1 C 5,6 C 86 % 1008,5 hPa 0,0 l/m 2 min 0 min 0,0 UV-I 221 W/m 10,3 km/h (2 Bft)
26.01.2014 12:56 6,1 C 5,6 C 85 % 1008,5 hPa 0,0 l/m 2 min 0 min 0,0 UV-I 214 W/m 12,9 km/h (3 Bft)
26.01.2014 12:58 6,2 C 5,6 C 85 % 1008,5 hPa 0,0 l/m 0 min 0 min 0,0 UV-I 186 W/m 12,9 km/h (3 Bft)
26.01.2014 13:00 6,2 C 5,6 C 85 % 1008,5 hPa 0,0 l/m 2 min 0 min 0,0 UV-I 213 W/m 7,7 km/h (2 Bft)
26.01.2014 13:02 6,2 C 5,6 C 84 % 1008,4 hPa 0,0 l/m 2 min 0 min 0,0 UV-I 204 W/m 18,0 km/h (3 Bft)
26.01.2014 13:04 6,2 C 5,6 C 84 % 1008,3 hPa 0,0 l/m 0 min 0 min 0,0 UV-I 171 W/m 10,3 km/h (2 Bft)
26.01.2014 13:06 6,2 C 5,6 C 84 % 1008,2 hPa 0,0 l/m 0 min 0 min 0,0 UV-I 185 W/m 12,9 km/h (3 Bft)
26.01.2014 13:08 6,1 C 5,6 C 84 % 1008,1 hPa 0,0 l/m 0 min 0 min 0,0 UV-I 171 W/m 10,3 km/h (2 Bft)
26.01.2014 13:10 6,2 C 5,6 C 84 % 1008,1 hPa 0,0 l/m 0 min 0 min 0,0 UV-I 174 W/m 2,6 km/h (1 Bft)
26.01.2014 13:12 6,2 C 5,6 C 84 % 1008,1 hPa 0,0 l/m 0 min 0 min 0,0 UV-I 167 W/m 10,3 km/h (2 Bft)
26.01.2014 13:14 6,2 C 5,6 C 84 % 1008,0 hPa 0,0 l/m 0 min 0 min 0,0 UV-I 183 W/m 0,0 km/h (0 Bft)
26.01.2014 13:16 6,2 C 5,6 C 84 % 1008,0 hPa 0,0 l/m 0 min 0 min 0,0 UV-I 171 W/m 10,3 km/h (2 Bft)
26.01.2014 13:18 6,1 C 5,6 C 82 % 1007,9 hPa 0,0 l/m 0 min 0 min 0,0 UV-I 174 W/m 20,6 km/h (4 Bft)
26.01.2014 13:20 6,1 C 5,6 C 82 % 1007,9 hPa 0,0 l/m 0 min 0 min 0,0 UV-I 171 W/m 15,4 km/h (3 Bft)
26.01.2014 13:22 6,0 C 5,6 C 83 % 1007,8 hPa 0,0 l/m 0 min 0 min 0,0 UV-I 169 W/m 5,1 km/h (1 Bft)
26.01.2014 13:24 6,0 C 5,6 C 83 % 1007,8 hPa 0,0 l/m 0 min 0 min 0,0 UV-I 169 W/m 18,0 km/h (3 Bft)
26.01.2014 13:26 6,0 C 5,6 C 82 % 1007,7 hPa 0,0 l/m 0 min 0 min 0,0 UV-I 169 W/m 18,0 km/h (3 Bft)
26.01.2014 13:28 5,9 C 5,6 C 82 % 1007,6 hPa 0,0 l/m 0 min 0 min 0,0 UV-I 165 W/m 15,4 km/h (3 Bft)
26.01.2014 13:30 5,9 C 5,6 C 82 % 1007,5 hPa 0,0 l/m 0 min 0 min 0,0 UV-I 163 W/m 12,9 km/h (3 Bft)
26.01.2014 13:32 5,9 C 5,6 C 82 % 1007,5 hPa 0,0 l/m 0 min 0 min 0,0 UV-I 155 W/m 10,3 km/h (2 Bft)
26.01.2014 13:34 5,8 C 5,6 C 82 % 1007,5 hPa 0,0 l/m 0 min 0 min 0,0 UV-I 146 W/m 2,6 km/h (1 Bft)
26.01.2014 13:36 5,8 C 5,6 C 82 % 1007,5 hPa 0,0 l/m 0 min 0 min 0,0 UV-I 139 W/m 7,7 km/h (2 Bft)
26.01.2014 13:38 5,8 C 5,6 C 82 % 1007,4 hPa 0,0 l/m 0 min 0 min 0,0 UV-I 130 W/m 5,1 km/h (1 Bft)
26.01.2014 13:40 5,8 C 5,6 C 82 % 1007,4 hPa 0,0 l/m 0 min 0 min 0,0 UV-I 123 W/m 10,3 km/h (2 Bft)
26.01.2014 13:42 5,8 C 5,6 C 82 % 1007,3 hPa 0,0 l/m 0 min 0 min 0,0 UV-I 104 W/m 0,0 km/h (0 Bft)
26.01.2014 13:44 5,8 C 5,0 C 82 % 1007,2 hPa 0,0 l/m 0 min 0 min 0,0 UV-I 113 W/m 12,9 km/h (3 Bft)
26.01.2014 13:46 5,8 C 5,0 C 82 % 1007,1 hPa 0,0 l/m 0 min 0 min 0,0 UV-I 113 W/m 2,6 km/h (1 Bft)
26.01.2014 13:48 5,8 C 5,6 C 82 % 1007,0 hPa 0,0 l/m 0 min 0 min 0,0 UV-I 111 W/m 7,7 km/h (2 Bft)
26.01.2014 13:50 5,9 C 5,0 C 82 % 1006,9 hPa 0,0 l/m 0 min 0 min 0,0 UV-I 102 W/m 2,6 km/h (1 Bft)
26.01.2014 13:52 5,8 C 5,0 C 82 % 1006,9 hPa 0,0 l/m 0 min 0 min 0,0 UV-I 104 W/m 5,1 km/h (1 Bft)
26.01.2014 13:54 5,9 C 5,0 C 82 % 1006,8 hPa 0,0 l/m 0 min 0 min 0,0 UV-I 100 W/m 0,0 km/h (0 Bft)
26.01.2014 13:56 5,9 C 5,0 C 82 % 1006,8 hPa 0,0 l/m 0 min 0 min 0,0 UV-I 98 W/m 0,0 km/h (0 Bft)
26.01.2014 13:58 5,9 C 5,6 C 83 % 1006,7 hPa 0,0 l/m 0 min 0 min 0,0 UV-I 100 W/m 0,0 km/h (0 Bft)
26.01.2014 14:00 5,9 C 5,6 C 83 % 1006,6 hPa 0,0 l/m 0 min 0 min 0,0 UV-I 100 W/m 7,7 km/h (2 Bft)
26.01.2014 14:02 5,9 C 5,0 C 82 % 1006,6 hPa 0,0 l/m 0 min 0 min 0,0 UV-I 102 W/m 15,4 km/h (3 Bft)
26.01.2014 14:04 5,9 C 5,0 C 81 % 1006,5 hPa 0,0 l/m 0 min 0 min 0,0 UV-I 100 W/m 12,9 km/h (3 Bft)
26.01.2014 14:06 5,8 C 5,0 C 81 % 1006,6 hPa 0,0 l/m 0 min 0 min 0,0 UV-I 98 W/m 10,3 km/h (2 Bft)
26.01.2014 14:08 5,8 C 5,0 C 81 % 1006,5 hPa 0,0 l/m 0 min 0 min 0,0 UV-I 102 W/m 7,7 km/h (2 Bft)
26.01.2014 14:10 5,8 C 5,0 C 81 % 1006,5 hPa 0,0 l/m 0 min 0 min 0,0 UV-I 105 W/m 2,6 km/h (1 Bft)
26.01.2014 14:12 5,8 C 5,0 C 81 % 1006,4 hPa 0,0 l/m 0 min 0 min 0,0 UV-I 107 W/m 12,9 km/h (3 Bft)
26.01.2014 14:14 5,8 C 5,0 C 81 % 1006,3 hPa 0,0 l/m 0 min 0 min 0,0 UV-I 104 W/m 7,7 km/h (2 Bft)
26.01.2014 14:16 5,8 C 5,0 C 81 % 1006,2 hPa 0,0 l/m 0 min 0 min 0,0 UV-I 100 W/m 10,3 km/h (2 Bft)
26.01.2014 14:18 5,8 C 5,0 C 81 % 1006,2 hPa 0,0 l/m 0 min 0 min 0,0 UV-I 100 W/m 7,7 km/h (2 Bft)
26.01.2014 14:20 5,8 C 5,0 C 80 % 1006,1 hPa 0,0 l/m 0 min 0 min 0,0 UV-I 100 W/m 12,9 km/h (3 Bft)
26.01.2014 14:22 5,8 C 5,0 C 80 % 1005,9 hPa 0,0 l/m 0 min 0 min 0,0 UV-I 104 W/m 10,3 km/h (2 Bft)
26.01.2014 14:24 5,8 C 5,0 C 80 % 1005,7 hPa 0,0 l/m 0 min 0 min 0,0 UV-I 104 W/m 7,7 km/h (2 Bft)
26.01.2014 14:26 5,9 C 5,0 C 80 % 1005,6 hPa 0,0 l/m 0 min 0 min 0,0 UV-I 102 W/m 10,3 km/h (2 Bft)
26.01.2014 14:28 5,9 C 5,0 C 80 % 1005,5 hPa 0,0 l/m 0 min 0 min 0,0 UV-I 102 W/m 12,9 km/h (3 Bft)
26.01.2014 14:30 5,8 C 5,0 C 79 % 1005,4 hPa 0,0 l/m 0 min 0 min 0,0 UV-I 98 W/m 10,3 km/h (2 Bft)
26.01.2014 14:32 5,9 C 5,0 C 80 % 1005,4 hPa 0,0 l/m 0 min 0 min 0,0 UV-I 97 W/m 10,3 km/h (2 Bft)
26.01.2014 14:34 5,9 C 5,0 C 80 % 1005,4 hPa 0,0 l/m 0 min 0 min 0,0 UV-I 95 W/m 0,0 km/h (0 Bft)
26.01.2014 14:36 5,9 C 5,0 C 80 % 1005,2 hPa 0,0 l/m 0 min 0 min 0,0 UV-I 95 W/m 0,0 km/h (0 Bft)
26.01.2014 14:38 5,9 C 5,0 C 80 % 1005,2 hPa 0,0 l/m 0 min 0 min 0,0 UV-I 95 W/m 10,3 km/h (2 Bft)
26.01.2014 14:40 5,9 C 5,0 C 80 % 1005,3 hPa 0,0 l/m 0 min 0 min 0,0 UV-I 95 W/m 12,9 km/h (3 Bft)
26.01.2014 14:42 5,9 C 5,0 C 79 % 1005,2 hPa 0,0 l/m 0 min 0 min 0,0 UV-I 95 W/m 7,7 km/h (2 Bft)
26.01.2014 14:44 5,9 C 5,0 C 79 % 1005,1 hPa 0,0 l/m 0 min 0 min 0,0 UV-I 97 W/m 23,2 km/h (4 Bft)
26.01.2014 14:46 5,9 C 5,0 C 79 % 1004,7 hPa 0,0 l/m 0 min 0 min 0,0 UV-I 98 W/m 15,4 km/h (3 Bft)
26.01.2014 14:48 5,9 C 5,0 C 79 % 1004,5 hPa 0,0 l/m 0 min 0 min 0,0 UV-I 100 W/m 20,6 km/h (4 Bft)
26.01.2014 14:50 5,9 C 5,0 C 79 % 1004,6 hPa 0,0 l/m 0 min 0 min 0,0 UV-I 98 W/m 15,4 km/h (3 Bft)
26.01.2014 14:52 5,9 C 5,0 C 79 % 1004,8 hPa 0,0 l/m 0 min 0 min 0,0 UV-I 97 W/m 12,9 km/h (3 Bft)
26.01.2014 14:54 5,9 C 5,0 C 79 % 1004,8 hPa 0,0 l/m 0 min 0 min 0,0 UV-I 95 W/m 0,0 km/h (0 Bft)
26.01.2014 14:56 5,9 C 5,0 C 79 % 1004,9 hPa 0,0 l/m 0 min 0 min 0,0 UV-I 95 W/m 12,9 km/h (3 Bft)
26.01.2014 14:58 5,9 C 5,0 C 79 % 1004,9 hPa 0,0 l/m 0 min 0 min 0,0 UV-I 95 W/m 0,0 km/h (0 Bft)
26.01.2014 15:00 5,9 C 5,0 C 80 % 1004,9 hPa 0,0 l/m 0 min 0 min 0,0 UV-I 93 W/m 2,6 km/h (1 Bft)
26.01.2014 15:02 5,9 C 5,0 C 79 % 1004,9 hPa 0,0 l/m 0 min 0 min 0,0 UV-I 90 W/m 0,0 km/h (0 Bft)
26.01.2014 15:04 5,9 C 5,0 C 80 % 1004,8 hPa 0,0 l/m 0 min 0 min 0,0 UV-I 84 W/m 12,9 km/h (3 Bft)
26.01.2014 15:06 5,8 C 5,0 C 80 % 1004,8 hPa 0,0 l/m 0 min 0 min 0,0 UV-I 83 W/m 10,3 km/h (2 Bft)
26.01.2014 15:08 5,8 C 5,0 C 79 % 1004,7 hPa 0,0 l/m 0 min 0 min 0,0 UV-I 81 W/m 5,1 km/h (1 Bft)
26.01.2014 15:10 5,8 C 5,0 C 79 % 1004,6 hPa 0,0 l/m 0 min 0 min 0,0 UV-I 79 W/m 2,6 km/h (1 Bft)
26.01.2014 15:12 5,8 C 5,0 C 79 % 1004,5 hPa 0,0 l/m 0 min 0 min 0,0 UV-I 79 W/m 15,4 km/h (3 Bft)
26.01.2014 15:14 5,8 C 5,0 C 78 % 1004,5 hPa 0,0 l/m 0 min 0 min 0,0 UV-I 77 W/m 15,4 km/h (3 Bft)
26.01.2014 15:16 5,8 C 5,0 C 78 % 1004,4 hPa 0,0 l/m 0 min 0 min 0,0 UV-I 74 W/m 10,3 km/h (2 Bft)
26.01.2014 15:18 5,8 C 5,0 C 78 % 1004,4 hPa 0,0 l/m 0 min 0 min 0,0 UV-I 70 W/m 12,9 km/h (3 Bft)
26.01.2014 15:20 5,8 C 5,0 C 78 % 1004,3 hPa 0,0 l/m 0 min 0 min 0,0 UV-I 67 W/m 18,0 km/h (3 Bft)
26.01.2014 15:22 5,8 C 5,0 C 78 % 1004,3 hPa 0,0 l/m 0 min 0 min 0,0 UV-I 63 W/m 7,7 km/h (2 Bft)
26.01.2014 15:24 5,8 C 5,0 C 78 % 1004,3 hPa 0,0 l/m 0 min 0 min 0,0 UV-I 60 W/m 10,3 km/h (2 Bft)
26.01.2014 15:26 5,8 C 4,4 C 77 % 1004,3 hPa 0,0 l/m 0 min 0 min 0,0 UV-I 58 W/m 15,4 km/h (3 Bft)
26.01.2014 15:28 5,8 C 4,4 C 78 % 1004,2 hPa 0,0 l/m 0 min 0 min 0,0 UV-I 56 W/m 23,2 km/h (4 Bft)
26.01.2014 15:30 5,8 C 4,4 C 78 % 1004,2 hPa 0,0 l/m 0 min 0 min 0,0 UV-I 54 W/m 10,3 km/h (2 Bft)
26.01.2014 15:32 5,8 C 4,4 C 78 % 1004,2 hPa 0,0 l/m 0 min 0 min 0,0 UV-I 54 W/m 15,4 km/h (3 Bft)
26.01.2014 15:34 5,8 C 4,4 C 78 % 1004,1 hPa 0,0 l/m 0 min 0 min 0,0 UV-I 51 W/m 2,6 km/h (1 Bft)
26.01.2014 15:36 5,8 C 4,4 C 78 % 1004,0 hPa 0,0 l/m 0 min 0 min 0,0 UV-I 49 W/m 7,7 km/h (2 Bft)
26.01.2014 15:38 5,7 C 4,4 C 78 % 1003,9 hPa 0,0 l/m 0 min 0 min 0,0 UV-I 47 W/m 5,1 km/h (1 Bft)
26.01.2014 15:40 5,7 C 4,4 C 78 % 1003,8 hPa 0,0 l/m 0 min 0 min 0,0 UV-I 44 W/m 10,3 km/h (2 Bft)
26.01.2014 15:42 5,7 C 4,4 C 79 % 1003,8 hPa 0,0 l/m 0 min 0 min 0,0 UV-I 44 W/m 10,3 km/h (2 Bft)
26.01.2014 15:44 5,7 C 4,4 C 79 % 1003,8 hPa 0,0 l/m 0 min 0 min 0,0 UV-I 42 W/m 7,7 km/h (2 Bft)
26.01.2014 15:46 5,7 C 4,4 C 79 % 1003,7 hPa 0,0 l/m 0 min 0 min 0,0 UV-I 42 W/m 7,7 km/h (2 Bft)
26.01.2014 15:48 5,7 C 4,4 C 79 % 1003,6 hPa 0,0 l/m 0 min 0 min 0,0 UV-I 42 W/m 7,7 km/h (2 Bft)
26.01.2014 15:50 5,7 C 4,4 C 79 % 1003,5 hPa 0,0 l/m 0 min 0 min 0,0 UV-I 40 W/m 7,7 km/h (2 Bft)
26.01.2014 15:52 5,7 C 4,4 C 79 % 1003,5 hPa 0,0 l/m 0 min 0 min 0,0 UV-I 39 W/m 0,0 km/h (0 Bft)
26.01.2014 15:54 5,7 C 4,4 C 79 % 1003,4 hPa 0,0 l/m 0 min 0 min 0,0 UV-I 37 W/m 10,3 km/h (2 Bft)
26.01.2014 15:56 5,6 C 4,4 C 79 % 1003,1 hPa 0,0 l/m 0 min 0 min 0,0 UV-I 33 W/m 7,7 km/h (2 Bft)
26.01.2014 15:58 5,6 C 4,4 C 79 % 1003,2 hPa 0,0 l/m 0 min 0 min 0,0 UV-I 30 W/m 5,1 km/h (1 Bft)
26.01.2014 16:00 5,6 C 4,4 C 79 % 1003,1 hPa 0,0 l/m 0 min 0 min 0,0 UV-I 26 W/m 12,9 km/h (3 Bft)
26.01.2014 16:02 5,6 C 4,4 C 79 % 1003,0 hPa 0,0 l/m 0 min 0 min 0,0 UV-I 25 W/m 12,9 km/h (3 Bft)
26.01.2014 16:04 5,6 C 4,4 C 79 % 1003,0 hPa 0,0 l/m 0 min 0 min 0,0 UV-I 19 W/m 0,0 km/h (0 Bft)
26.01.2014 16:06 5,6 C 4,4 C 79 % 1002,9 hPa 0,0 l/m 0 min 0 min 0,0 UV-I 16 W/m 15,4 km/h (3 Bft)
26.01.2014 16:08 5,6 C 4,4 C 79 % 1002,9 hPa 0,0 l/m 0 min 0 min 0,0 UV-I 14 W/m 15,4 km/h (3 Bft)
26.01.2014 16:10 5,6 C 4,4 C 79 % 1003,0 hPa 0,0 l/m 0 min 0 min 0,0 UV-I 14 W/m 7,7 km/h (2 Bft)
26.01.2014 16:12 5,6 C 4,4 C 79 % 1003,1 hPa 0,0 l/m 0 min 0 min 0,0 UV-I 14 W/m 2,6 km/h (1 Bft)
26.01.2014 16:14 5,6 C 4,4 C 79 % 1003,1 hPa 0,0 l/m 0 min 0 min 0,0 UV-I 14 W/m 10,3 km/h (2 Bft)
26.01.2014 16:16 5,6 C 4,4 C 79 % 1002,9 hPa 0,0 l/m 0 min 0 min 0,0 UV-I 14 W/m 5,1 km/h (1 Bft)
26.01.2014 16:18 5,6 C 3,9 C 80 % 1002,8 hPa 0,0 l/m 0 min 0 min 0,0 UV-I 14 W/m 7,7 km/h (2 Bft)
26.01.2014 16:20 5,6 C 4,4 C 80 % 1002,7 hPa 0,0 l/m 0 min 0 min 0,0 UV-I 14 W/m 20,6 km/h (4 Bft)
26.01.2014 16:22 5,6 C 4,4 C 80 % 1002,6 hPa 0,0 l/m 0 min 0 min 0,0 UV-I 14 W/m 5,1 km/h (1 Bft)
26.01.2014 16:24 5,6 C 3,9 C 80 % 1002,6 hPa 0,0 l/m 0 min 0 min 0,0 UV-I 14 W/m 10,3 km/h (2 Bft)
26.01.2014 16:26 5,6 C 3,9 C 80 % 1002,6 hPa 0,0 l/m 0 min 0 min 0,0 UV-I 12 W/m 10,3 km/h (2 Bft)
26.01.2014 16:28 5,6 C 3,9 C 80 % 1002,5 hPa 0,0 l/m 0 min 0 min 0,0 UV-I 12 W/m 7,7 km/h (2 Bft)
26.01.2014 16:30 5,6 C 3,9 C 80 % 1002,4 hPa 0,0 l/m 0 min 0 min 0,0 UV-I 12 W/m 12,9 km/h (3 Bft)
26.01.2014 16:32 5,6 C 3,9 C 80 % 1002,3 hPa 0,0 l/m 0 min 0 min 0,0 UV-I 12 W/m 10,3 km/h (2 Bft)
26.01.2014 16:34 5,6 C 3,9 C 80 % 1002,2 hPa 0,0 l/m 0 min 0 min 0,0 UV-I 11 W/m 20,6 km/h (4 Bft)
26.01.2014 16:36 5,6 C 3,9 C 80 % 1002,1 hPa 0,0 l/m 0 min 0 min 0,0 UV-I 11 W/m 12,9 km/h (3 Bft)
26.01.2014 16:38 5,6 C 3,9 C 80 % 1002,1 hPa 0,0 l/m 0 min 0 min 0,0 UV-I 11 W/m 12,9 km/h (3 Bft)
26.01.2014 16:40 5,6 C 3,9 C 80 % 1002,0 hPa 0,0 l/m 0 min 0 min 0,0 UV-I 11 W/m 15,4 km/h (3 Bft)
26.01.2014 16:42 5,6 C 3,9 C 80 % 1001,7 hPa 0,0 l/m 0 min 0 min 0,0 UV-I 9 W/m 12,9 km/h (3 Bft)
26.01.2014 16:44 5,6 C 3,9 C 80 % 1001,7 hPa 0,0 l/m 0 min 0 min 0,0 UV-I 9 W/m 23,2 km/h (4 Bft)
26.01.2014 16:46 5,6 C 3,9 C 80 % 1001,6 hPa 0,0 l/m 0 min 0 min 0,0 UV-I 9 W/m 20,6 km/h (4 Bft)
26.01.2014 16:48 5,5 C 3,9 C 80 % 1001,5 hPa 0,0 l/m 0 min 0 min 0,0 UV-I 9 W/m 7,7 km/h (2 Bft)
26.01.2014 16:50 5,5 C 3,9 C 80 % 1001,5 hPa 0,0 l/m 0 min 0 min 0,0 UV-I 7 W/m 15,4 km/h (3 Bft)
26.01.2014 16:52 5,5 C 3,9 C 80 % 1001,4 hPa 0,0 l/m 0 min 0 min 0,0 UV-I 7 W/m 7,7 km/h (2 Bft)
26.01.2014 16:54 5,5 C 3,9 C 80 % 1001,4 hPa 0,0 l/m 0 min 0 min 0,0 UV-I 7 W/m 7,7 km/h (2 Bft)
26.01.2014 16:56 5,5 C 3,9 C 80 % 1001,3 hPa 0,0 l/m 0 min 0 min 0,0 UV-I 5 W/m 12,9 km/h (3 Bft)
26.01.2014 16:58 5,4 C 3,9 C 79 % 1001,1 hPa 0,0 l/m 0 min 0 min 0,0 UV-I 5 W/m 12,9 km/h (3 Bft)
26.01.2014 17:00 5,4 C 3,9 C 79 % 1001,0 hPa 0,0 l/m 0 min 0 min 0,0 UV-I 5 W/m 20,6 km/h (4 Bft)
26.01.2014 17:02 5,4 C 3,9 C 79 % 1000,9 hPa 0,0 l/m 0 min 0 min 0,0 UV-I 0 W/m 18,0 km/h (3 Bft)
26.01.2014 17:04 5,4 C 3,9 C 78 % 1000,8 hPa 0,0 l/m 0 min 0 min 0,0 UV-I 0 W/m 18,0 km/h (3 Bft)
26.01.2014 17:06 5,4 C 3,9 C 78 % 1000,7 hPa 0,0 l/m 0 min 0 min 0,0 UV-I 0 W/m 20,6 km/h (4 Bft)
26.01.2014 17:08 5,4 C 3,9 C 78 % 1000,7 hPa 0,0 l/m 0 min 0 min 0,0 UV-I 0 W/m 15,4 km/h (3 Bft)
26.01.2014 17:10 5,4 C 3,9 C 78 % 1000,6 hPa 0,0 l/m 0 min 0 min 0,0 UV-I 0 W/m 10,3 km/h (2 Bft)
26.01.2014 17:12 5,4 C 3,9 C 78 % 1000,5 hPa 0,0 l/m 0 min 0 min 0,0 UV-I 0 W/m 15,4 km/h (3 Bft)
26.01.2014 17:14 5,4 C 3,9 C 78 % 1000,5 hPa 0,0 l/m 0 min 0 min 0,0 UV-I 0 W/m 12,9 km/h (3 Bft)
26.01.2014 17:16 5,4 C 3,9 C 78 % 1000,4 hPa 0,0 l/m 0 min 0 min 0,0 UV-I 0 W/m 15,4 km/h (3 Bft)
26.01.2014 17:18 5,4 C 3,9 C 78 % 1000,3 hPa 0,0 l/m 0 min 0 min 0,0 UV-I 0 W/m 18,0 km/h (3 Bft)
26.01.2014 17:20 5,4 C 3,9 C 78 % 1000,3 hPa 0,0 l/m 0 min 0 min 0,0 UV-I 0 W/m 5,1 km/h (1 Bft)
26.01.2014 17:22 5,4 C 3,9 C 78 % 1000,4 hPa 0,0 l/m 0 min 0 min 0,0 UV-I 0 W/m 15,4 km/h (3 Bft)
26.01.2014 17:24 5,4 C 3,9 C 78 % 1000,2 hPa 0,0 l/m 0 min 0 min 0,0 UV-I 0 W/m 18,0 km/h (3 Bft)
26.01.2014 17:26 5,4 C 3,9 C 78 % 1000,2 hPa 0,0 l/m 0 min 0 min 0,0 UV-I 0 W/m 20,6 km/h (4 Bft)
26.01.2014 17:28 5,4 C 3,9 C 78 % 1000,1 hPa 0,0 l/m 0 min 0 min 0,0 UV-I 0 W/m 10,3 km/h (2 Bft)
26.01.2014 17:30 5,4 C 3,9 C 78 % 1000,1 hPa 0,0 l/m 0 min 0 min 0,0 UV-I 0 W/m 20,6 km/h (4 Bft)
26.01.2014 17:32 5,4 C 3,9 C 78 % 1000,0 hPa 0,0 l/m 0 min 0 min 0,0 UV-I 0 W/m 15,4 km/h (3 Bft)
26.01.2014 17:34 5,4 C 3,9 C 78 % 999,9 hPa 0,0 l/m 0 min 0 min 0,0 UV-I 0 W/m 15,4 km/h (3 Bft)
26.01.2014 17:36 5,4 C 3,9 C 78 % 999,9 hPa 0,0 l/m 0 min 0 min 0,0 UV-I 0 W/m 12,9 km/h (3 Bft)
26.01.2014 17:38 5,4 C 3,9 C 78 % 999,8 hPa 0,0 l/m 0 min 0 min 0,0 UV-I 0 W/m 15,4 km/h (3 Bft)
26.01.2014 17:40 5,4 C 3,9 C 78 % 999,7 hPa 0,0 l/m 0 min 0 min 0,0 UV-I 0 W/m 12,9 km/h (3 Bft)
26.01.2014 17:42 5,4 C 3,9 C 78 % 999,8 hPa 0,0 l/m 0 min 0 min 0,0 UV-I 0 W/m 23,2 km/h (4 Bft)
26.01.2014 17:44 5,4 C 3,9 C 78 % 999,6 hPa 0,0 l/m 0 min 0 min 0,0 UV-I 0 W/m 12,9 km/h (3 Bft)
26.01.2014 17:46 5,4 C 3,9 C 78 % 999,5 hPa 0,0 l/m 0 min 0 min 0,0 UV-I 0 W/m 15,4 km/h (3 Bft)
26.01.2014 17:48 5,3 C 3,9 C 78 % 999,4 hPa 0,0 l/m 0 min 0 min 0,0 UV-I 0 W/m 10,3 km/h (2 Bft)
26.01.2014 17:50 5,3 C 3,9 C 78 % 999,3 hPa 0,0 l/m 0 min 0 min 0,0 UV-I 0 W/m 10,3 km/h (2 Bft)
26.01.2014 17:52 5,3 C 3,9 C 79 % 999,2 hPa 0,0 l/m 0 min 0 min 0,0 UV-I 0 W/m 12,9 km/h (3 Bft)
26.01.2014 17:54 5,3 C 3,9 C 79 % 999,2 hPa 0,0 l/m 0 min 0 min 0,0 UV-I 0 W/m 18,0 km/h (3 Bft)
26.01.2014 17:56 5,3 C 3,9 C 79 % 999,2 hPa 0,0 l/m 0 min 0 min 0,0 UV-I 0 W/m 12,9 km/h (3 Bft)
26.01.2014 17:58 5,3 C 3,9 C 79 % 999,1 hPa 0,0 l/m 0 min 2 min 0,0 UV-I 0 W/m 18,0 km/h (3 Bft)
26.01.2014 18:00 5,3 C 3,3 C 79 % 999,1 hPa 0,0 l/m 0 min 2 min 0,0 UV-I 0 W/m 15,4 km/h (3 Bft)
26.01.2014 18:02 5,3 C 3,3 C 79 % 999,0 hPa 0,0 l/m 0 min 2 min 0,0 UV-I 0 W/m 20,6 km/h (4 Bft)
26.01.2014 18:04 5,3 C 3,3 C 79 % 999,0 hPa 0,0 l/m 0 min 2 min 0,0 UV-I 0 W/m 18,0 km/h (3 Bft)
26.01.2014 18:06 5,3 C 3,3 C 80 % 998,9 hPa 0,0 l/m 0 min 2 min 0,0 UV-I 0 W/m 20,6 km/h (4 Bft)
26.01.2014 18:08 5,3 C 2,8 C 80 % 998,8 hPa 0,0 l/m 0 min 2 min 0,0 UV-I 0 W/m 18,0 km/h (3 Bft)
26.01.2014 18:10 5,3 C 2,8 C 81 % 998,8 hPa 0,0 l/m 0 min 2 min 0,0 UV-I 0 W/m 12,9 km/h (3 Bft)
26.01.2014 18:12 5,3 C 2,8 C 81 % 998,7 hPa 0,0 l/m 0 min 2 min 0,0 UV-I 0 W/m 15,4 km/h (3 Bft)
26.01.2014 18:14 5,2 C 2,8 C 81 % 998,7 hPa 0,0 l/m 0 min 2 min 0,0 UV-I 0 W/m 18,0 km/h (3 Bft)
26.01.2014 18:16 5,2 C 2,8 C 82 % 998,6 hPa 0,2 l/m 0 min 2 min 0,0 UV-I 0 W/m 20,6 km/h (4 Bft)
26.01.2014 18:18 5,2 C 2,8 C 82 % 998,5 hPa 0,0 l/m 0 min 2 min 0,0 UV-I 0 W/m 12,9 km/h (3 Bft)
26.01.2014 18:20 5,1 C 2,8 C 82 % 998,5 hPa 0,0 l/m 0 min 2 min 0,0 UV-I 0 W/m 12,9 km/h (3 Bft)
26.01.2014 18:22 5,1 C 2,8 C 83 % 998,4 hPa 0,0 l/m 0 min 2 min 0,0 UV-I 0 W/m 23,2 km/h (4 Bft)
26.01.2014 18:24 5,1 C 2,8 C 84 % 998,3 hPa 0,0 l/m 0 min 2 min 0,0 UV-I 0 W/m 10,3 km/h (2 Bft)
26.01.2014 18:26 5,0 C 2,8 C 84 % 998,2 hPa 0,0 l/m 0 min 2 min 0,0 UV-I 0 W/m 20,6 km/h (4 Bft)
26.01.2014 18:28 5,0 C 2,2 C 84 % 998,2 hPa 0,2 l/m 0 min 2 min 0,0 UV-I 0 W/m 15,4 km/h (3 Bft)
26.01.2014 18:30 4,9 C 2,2 C 85 % 998,1 hPa 0,0 l/m 0 min 2 min 0,0 UV-I 0 W/m 18,0 km/h (3 Bft)
26.01.2014 18:32 4,8 C 2,2 C 85 % 998,0 hPa 0,0 l/m 0 min 2 min 0,0 UV-I 0 W/m 28,3 km/h (4 Bft)
26.01.2014 18:34 4,8 C 2,2 C 86 % 998,0 hPa 0,0 l/m 0 min 2 min 0,0 UV-I 0 W/m 20,6 km/h (4 Bft)
26.01.2014 18:36 4,7 C 2,2 C 86 % 998,0 hPa 0,2 l/m 0 min 2 min 0,0 UV-I 0 W/m 23,2 km/h (4 Bft)
26.01.2014 18:38 4,7 C 2,2 C 86 % 998,0 hPa 0,0 l/m 0 min 2 min 0,0 UV-I 0 W/m 25,7 km/h (4 Bft)
26.01.2014 18:40 4,6 C 2,2 C 87 % 997,9 hPa 0,2 l/m 0 min 2 min 0,0 UV-I 0 W/m 20,6 km/h (4 Bft)
26.01.2014 18:42 4,6 C 2,2 C 87 % 997,9 hPa 0,0 l/m 0 min 2 min 0,0 UV-I 0 W/m 23,2 km/h (4 Bft)
26.01.2014 18:44 4,5 C 2,2 C 87 % 997,8 hPa 0,0 l/m 0 min 2 min 0,0 UV-I 0 W/m 23,2 km/h (4 Bft)
26.01.2014 18:46 4,5 C 2,2 C 88 % 997,7 hPa 0,2 l/m 0 min 2 min 0,0 UV-I 0 W/m 18,0 km/h (3 Bft)
26.01.2014 18:48 4,4 C 2,2 C 88 % 997,6 hPa 0,0 l/m 0 min 2 min 0,0 UV-I 0 W/m 18,0 km/h (3 Bft)
26.01.2014 18:50 4,4 C 2,2 C 88 % 997,5 hPa 0,0 l/m 0 min 2 min 0,0 UV-I 0 W/m 15,4 km/h (3 Bft)
26.01.2014 18:52 4,3 C 2,2 C 89 % 997,4 hPa 0,2 l/m 0 min 2 min 0,0 UV-I 0 W/m 28,3 km/h (4 Bft)
26.01.2014 18:54 4,3 C 2,2 C 89 % 997,2 hPa 0,0 l/m 0 min 2 min 0,0 UV-I 0 W/m 33,5 km/h (5 Bft)
26.01.2014 18:56 4,2 C 2,2 C 89 % 997,0 hPa 0,0 l/m 0 min 2 min 0,0 UV-I 0 W/m 15,4 km/h (3 Bft)
26.01.2014 18:58 4,2 C 2,2 C 89 % 997,1 hPa 0,2 l/m 0 min 2 min 0,0 UV-I 0 W/m 30,9 km/h (5 Bft)
26.01.2014 19:00 4,2 C 2,2 C 90 % 997,0 hPa 0,2 l/m 0 min 2 min 0,0 UV-I 0 W/m 23,2 km/h (4 Bft)
26.01.2014 19:02 4,1 C 2,2 C 90 % 996,9 hPa 0,0 l/m 0 min 2 min 0,0 UV-I 0 W/m 28,3 km/h (4 Bft)
26.01.2014 19:04 4,1 C 2,2 C 90 % 996,7 hPa 0,2 l/m 0 min 2 min 0,0 UV-I 0 W/m 20,6 km/h (4 Bft)
26.01.2014 19:06 4,0 C 2,2 C 90 % 996,8 hPa 0,2 l/m 0 min 2 min 0,0 UV-I 0 W/m 23,2 km/h (4 Bft)
26.01.2014 19:08 4,0 C 2,2 C 91 % 996,6 hPa 0,0 l/m 0 min 2 min 0,0 UV-I 0 W/m 25,7 km/h (4 Bft)
26.01.2014 19:10 3,9 C 2,2 C 91 % 996,5 hPa 0,2 l/m 0 min 2 min 0,0 UV-I 0 W/m 23,2 km/h (4 Bft)
26.01.2014 19:12 3,9 C 2,2 C 91 % 996,6 hPa 0,0 l/m 0 min 2 min 0,0 UV-I 0 W/m 20,6 km/h (4 Bft)
26.01.2014 19:14 3,9 C 2,2 C 91 % 996,5 hPa 0,2 l/m 0 min 2 min 0,0 UV-I 0 W/m 15,4 km/h (3 Bft)
26.01.2014 19:16 3,8 C 2,2 C 92 % 996,3 hPa 0,0 l/m 0 min 2 min 0,0 UV-I 0 W/m 20,6 km/h (4 Bft)
26.01.2014 19:18 3,8 C 2,2 C 92 % 996,1 hPa 0,0 l/m 0 min 2 min 0,0 UV-I 0 W/m 23,2 km/h (4 Bft)
26.01.2014 19:20 3,8 C 2,2 C 92 % 996,1 hPa 0,2 l/m 0 min 2 min 0,0 UV-I 0 W/m 20,6 km/h (4 Bft)
26.01.2014 19:22 3,8 C 2,2 C 92 % 996,0 hPa 0,0 l/m 0 min 2 min 0,0 UV-I 0 W/m 18,0 km/h (3 Bft)
26.01.2014 19:24 3,8 C 2,2 C 92 % 995,9 hPa 0,0 l/m 0 min 2 min 0,0 UV-I 0 W/m 18,0 km/h (3 Bft)
26.01.2014 19:26 3,7 C 2,2 C 92 % 995,8 hPa 0,2 l/m 0 min 2 min 0,0 UV-I 0 W/m 25,7 km/h (4 Bft)
26.01.2014 19:28 3,7 C 2,2 C 93 % 995,9 hPa 0,0 l/m 0 min 2 min 0,0 UV-I 0 W/m 25,7 km/h (4 Bft)
26.01.2014 19:30 3,7 C 2,2 C 93 % 995,6 hPa 0,0 l/m 0 min 2 min 0,0 UV-I 0 W/m 25,7 km/h (4 Bft)
26.01.2014 19:32 3,7 C 2,2 C 93 % 995,5 hPa 0,2 l/m 0 min 2 min 0,0 UV-I 0 W/m 25,7 km/h (4 Bft)
26.01.2014 19:34 3,7 C 2,2 C 93 % 995,4 hPa 0,2 l/m 0 min 2 min 0,0 UV-I 0 W/m 12,9 km/h (3 Bft)
26.01.2014 19:36 3,7 C 2,2 C 93 % 995,4 hPa 0,0 l/m 0 min 2 min 0,0 UV-I 0 W/m 23,2 km/h (4 Bft)
26.01.2014 19:38 3,7 C 2,2 C 93 % 995,2 hPa 0,0 l/m 0 min 2 min 0,0 UV-I 0 W/m 25,7 km/h (4 Bft)
26.01.2014 19:40 3,7 C 2,2 C 93 % 995,2 hPa 0,2 l/m 0 min 2 min 0,0 UV-I 0 W/m 20,6 km/h (4 Bft)
26.01.2014 19:42 3,7 C 2,2 C 93 % 995,1 hPa 0,0 l/m 0 min 2 min 0,0 UV-I 0 W/m 25,7 km/h (4 Bft)
26.01.2014 19:44 3,6 C 2,2 C 93 % 995,0 hPa 0,2 l/m 0 min 2 min 0,0 UV-I 0 W/m 36,0 km/h (5 Bft)
26.01.2014 19:46 3,6 C 2,2 C 93 % 995,0 hPa 0,0 l/m 0 min 2 min 0,0 UV-I 0 W/m 25,7 km/h (4 Bft)
26.01.2014 19:48 3,6 C 2,2 C 93 % 994,9 hPa 0,0 l/m 0 min 2 min 0,0 UV-I 0 W/m 28,3 km/h (4 Bft)
26.01.2014 19:50 3,5 C 2,2 C 94 % 994,9 hPa 0,2 l/m 0 min 2 min 0,0 UV-I 0 W/m 28,3 km/h (4 Bft)
26.01.2014 19:52 3,4 C 2,2 C 94 % 994,8 hPa 0,2 l/m 0 min 2 min 0,0 UV-I 0 W/m 28,3 km/h (4 Bft)
26.01.2014 19:54 3,4 C 2,2 C 94 % 994,6 hPa 0,0 l/m 0 min 2 min 0,0 UV-I 0 W/m 25,7 km/h (4 Bft)
26.01.2014 19:56 3,4 C 2,2 C 94 % 994,6 hPa 0,0 l/m 0 min 2 min 0,0 UV-I 0 W/m 28,3 km/h (4 Bft)
26.01.2014 19:58 3,4 C 2,2 C 94 % 994,5 hPa 0,2 l/m 0 min 2 min 0,0 UV-I 0 W/m 23,2 km/h (4 Bft)
26.01.2014 20:00 3,4 C 2,2 C 94 % 994,4 hPa 0,0 l/m 0 min 2 min 0,0 UV-I 0 W/m 20,6 km/h (4 Bft)
26.01.2014 20:02 3,3 C 2,2 C 94 % 994,4 hPa 0,2 l/m 0 min 2 min 0,0 UV-I 0 W/m 23,2 km/h (4 Bft)
26.01.2014 20:04 3,3 C 2,2 C 94 % 994,3 hPa 0,0 l/m 0 min 2 min 0,0 UV-I 0 W/m 33,5 km/h (5 Bft)
26.01.2014 20:06 3,3 C 2,2 C 94 % 994,2 hPa 0,0 l/m 0 min 2 min 0,0 UV-I 0 W/m 28,3 km/h (4 Bft)
26.01.2014 20:08 3,3 C 2,2 C 94 % 994,2 hPa 0,2 l/m 0 min 2 min 0,0 UV-I 0 W/m 33,5 km/h (5 Bft)
26.01.2014 20:10 3,3 C 2,2 C 94 % 994,1 hPa 0,0 l/m 0 min 2 min 0,0 UV-I 0 W/m 23,2 km/h (4 Bft)
26.01.2014 20:12 3,3 C 2,2 C 94 % 994,1 hPa 0,2 l/m 0 min 2 min 0,0 UV-I 0 W/m 30,9 km/h (5 Bft)
26.01.2014 20:14 3,3 C 2,2 C 95 % 993,9 hPa 0,0 l/m 0 min 2 min 0,0 UV-I 0 W/m 12,9 km/h (3 Bft)
26.01.2014 20:16 3,3 C 2,2 C 95 % 993,9 hPa 0,2 l/m 0 min 2 min 0,0 UV-I 0 W/m 28,3 km/h (4 Bft)
26.01.2014 20:18 3,3 C 2,2 C 95 % 993,9 hPa 0,2 l/m 0 min 2 min 0,0 UV-I 0 W/m 25,7 km/h (4 Bft)
26.01.2014 20:20 3,3 C 2,2 C 95 % 993,7 hPa 0,0 l/m 0 min 2 min 0,0 UV-I 0 W/m 28,3 km/h (4 Bft)
26.01.2014 20:22 3,3 C 2,2 C 95 % 993,7 hPa 0,2 l/m 0 min 2 min 0,0 UV-I 0 W/m 36,0 km/h (5 Bft)
26.01.2014 20:24 3,2 C 2,2 C 95 % 993,7 hPa 0,2 l/m 0 min 2 min 0,0 UV-I 0 W/m 18,0 km/h (3 Bft)
26.01.2014 20:26 3,2 C 2,2 C 95 % 993,5 hPa 0,2 l/m 0 min 2 min 0,0 UV-I 0 W/m 30,9 km/h (5 Bft)
26.01.2014 20:28 3,3 C 2,2 C 95 % 993,5 hPa 0,2 l/m 0 min 2 min 0,0 UV-I 0 W/m 41,2 km/h (6 Bft)
26.01.2014 20:30 3,2 C 2,2 C 95 % 993,4 hPa 0,2 l/m 0 min 2 min 0,0 UV-I 0 W/m 20,6 km/h (4 Bft)
26.01.2014 20:32 3,2 C 2,2 C 95 % 993,2 hPa 0,2 l/m 0 min 2 min 0,0 UV-I 0 W/m 30,9 km/h (5 Bft)
26.01.2014 20:34 3,2 C 2,2 C 95 % 993,2 hPa 0,0 l/m 0 min 2 min 0,0 UV-I 0 W/m 30,9 km/h (5 Bft)
26.01.2014 20:36 3,3 C 2,2 C 95 % 993,1 hPa 0,2 l/m 0 min 2 min 0,0 UV-I 0 W/m 43,8 km/h (6 Bft)
26.01.2014 20:38 3,3 C 2,2 C 95 % 992,8 hPa 0,2 l/m 0 min 2 min 0,0 UV-I 0 W/m 38,6 km/h (5 Bft)
26.01.2014 20:40 3,3 C 2,2 C 95 % 992,7 hPa 0,0 l/m 0 min 2 min 0,0 UV-I 0 W/m 48,9 km/h (6 Bft)
26.01.2014 20:42 3,3 C 2,2 C 95 % 992,7 hPa 0,0 l/m 0 min 2 min 0,0 UV-I 0 W/m 38,6 km/h (5 Bft)
26.01.2014 20:44 3,3 C 2,2 C 95 % 992,5 hPa 0,2 l/m 0 min 2 min 0,0 UV-I 0 W/m 36,0 km/h (5 Bft)
26.01.2014 20:46 3,3 C 2,2 C 95 % 992,5 hPa 0,0 l/m 0 min 2 min 0,0 UV-I 0 W/m 36,0 km/h (5 Bft)
26.01.2014 20:48 3,3 C 2,2 C 95 % 992,4 hPa 0,2 l/m 0 min 2 min 0,0 UV-I 0 W/m 33,5 km/h (5 Bft)
26.01.2014 20:50 3,3 C 2,2 C 95 % 992,4 hPa 0,0 l/m 0 min 2 min 0,0 UV-I 0 W/m 33,5 km/h (5 Bft)
26.01.2014 20:52 3,3 C 2,2 C 95 % 992,3 hPa 0,2 l/m 0 min 2 min 0,0 UV-I 0 W/m 36,0 km/h (5 Bft)
26.01.2014 20:54 3,3 C 2,2 C 95 % 992,2 hPa 0,2 l/m 0 min 2 min 0,0 UV-I 0 W/m 23,2 km/h (4 Bft)
26.01.2014 20:56 3,4 C 2,2 C 95 % 992,3 hPa 0,0 l/m 0 min 2 min 0,0 UV-I 0 W/m 38,6 km/h (5 Bft)
26.01.2014 20:58 3,4 C 2,2 C 95 % 992,2 hPa 0,0 l/m 0 min 2 min 0,0 UV-I 0 W/m 30,9 km/h (5 Bft)
26.01.2014 21:00 3,4 C 2,2 C 96 % 992,1 hPa 0,2 l/m 0 min 2 min 0,0 UV-I 0 W/m 30,9 km/h (5 Bft)
26.01.2014 21:02 3,4 C 2,2 C 96 % 992,1 hPa 0,0 l/m 0 min 2 min 0,0 UV-I 0 W/m 33,5 km/h (5 Bft)
26.01.2014 21:04 3,4 C 2,2 C 96 % 992,0 hPa 0,2 l/m 0 min 2 min 0,0 UV-I 0 W/m 33,5 km/h (5 Bft)
26.01.2014 21:06 3,4 C 2,2 C 96 % 992,0 hPa 0,0 l/m 0 min 2 min 0,0 UV-I 0 W/m 25,7 km/h (4 Bft)
26.01.2014 21:08 3,4 C 2,2 C 96 % 991,9 hPa 0,0 l/m 0 min 2 min 0,0 UV-I 0 W/m 20,6 km/h (4 Bft)
26.01.2014 21:10 3,4 C 2,2 C 96 % 991,9 hPa 0,2 l/m 0 min 2 min 0,0 UV-I 0 W/m 33,5 km/h (5 Bft)
26.01.2014 21:12 3,4 C 2,2 C 96 % 991,8 hPa 0,0 l/m 0 min 2 min 0,0 UV-I 0 W/m 25,7 km/h (4 Bft)
26.01.2014 21:14 3,4 C 2,2 C 96 % 991,8 hPa 0,2 l/m 0 min 2 min 0,0 UV-I 0 W/m 46,3 km/h (6 Bft)
26.01.2014 21:16 3,4 C 2,2 C 96 % 991,7 hPa 0,0 l/m 0 min 2 min 0,0 UV-I 0 W/m 28,3 km/h (4 Bft)
26.01.2014 21:18 3,4 C 2,2 C 96 % 991,6 hPa 0,0 l/m 0 min 2 min 0,0 UV-I 0 W/m 30,9 km/h (5 Bft)
26.01.2014 21:20 3,4 C 2,2 C 96 % 991,6 hPa 0,0 l/m 0 min 2 min 0,0 UV-I 0 W/m 30,9 km/h (5 Bft)
26.01.2014 21:22 3,4 C 2,2 C 96 % 991,5 hPa 0,0 l/m 0 min 2 min 0,0 UV-I 0 W/m 33,5 km/h (5 Bft)
26.01.2014 21:24 3,5 C 2,2 C 96 % 991,5 hPa 0,0 l/m 0 min 2 min 0,0 UV-I 0 W/m 36,0 km/h (5 Bft)
26.01.2014 21:26 3,5 C 2,2 C 96 % 991,4 hPa 0,2 l/m 0 min 2 min 0,0 UV-I 0 W/m 30,9 km/h (5 Bft)
26.01.2014 21:28 3,5 C 2,2 C 96 % 991,4 hPa 0,0 l/m 0 min 2 min 0,0 UV-I 0 W/m 33,5 km/h (5 Bft)
26.01.2014 21:30 3,5 C 2,2 C 96 % 991,5 hPa 0,2 l/m 0 min 2 min 0,0 UV-I 0 W/m 33,5 km/h (5 Bft)
26.01.2014 21:32 3,5 C 2,2 C 96 % 991,3 hPa 0,0 l/m 0 min 2 min 0,0 UV-I 0 W/m 28,3 km/h (4 Bft)
26.01.2014 21:34 3,6 C 2,2 C 96 % 991,3 hPa 0,0 l/m 0 min 2 min 0,0 UV-I 0 W/m 38,6 km/h (5 Bft)
26.01.2014 21:36 3,6 C 2,2 C 96 % 991,3 hPa 0,0 l/m 0 min 2 min 0,0 UV-I 0 W/m 30,9 km/h (5 Bft)
26.01.2014 21:38 3,6 C 2,2 C 96 % 991,2 hPa 0,0 l/m 0 min 2 min 0,0 UV-I 0 W/m 41,2 km/h (6 Bft)
26.01.2014 21:40 3,6 C 2,2 C 96 % 991,1 hPa 0,0 l/m 0 min 2 min 0,0 UV-I 0 W/m 38,6 km/h (5 Bft)
26.01.2014 21:42 3,6 C 2,2 C 96 % 991,1 hPa 0,0 l/m 0 min 2 min 0,0 UV-I 0 W/m 33,5 km/h (5 Bft)
26.01.2014 21:44 3,6 C 2,2 C 96 % 991,2 hPa 0,0 l/m 0 min 2 min 0,0 UV-I 0 W/m 28,3 km/h (4 Bft)
26.01.2014 21:46 3,6 C 2,2 C 96 % 991,1 hPa 0,0 l/m 0 min 2 min 0,0 UV-I 0 W/m 25,7 km/h (4 Bft)
26.01.2014 21:48 3,6 C 2,2 C 96 % 991,1 hPa 0,0 l/m 0 min 2 min 0,0 UV-I 0 W/m 28,3 km/h (4 Bft)
26.01.2014 21:50 3,6 C 2,2 C 96 % 991,1 hPa 0,0 l/m 0 min 2 min 0,0 UV-I 0 W/m 28,3 km/h (4 Bft)
26.01.2014 21:52 3,6 C 2,2 C 96 % 991,0 hPa 0,0 l/m 0 min 2 min 0,0 UV-I 0 W/m 38,6 km/h (5 Bft)
26.01.2014 21:54 3,6 C 2,2 C 96 % 990,9 hPa 0,0 l/m 0 min 2 min 0,0 UV-I 0 W/m 36,0 km/h (5 Bft)
26.01.2014 21:56 3,6 C 2,2 C 96 % 990,9 hPa 0,0 l/m 0 min 2 min 0,0 UV-I 0 W/m 36,0 km/h (5 Bft)
26.01.2014 21:58 3,6 C 2,2 C 96 % 990,9 hPa 0,0 l/m 0 min 2 min 0,0 UV-I 0 W/m 30,9 km/h (5 Bft)
26.01.2014 22:00 3,6 C 2,2 C 96 % 990,9 hPa 0,2 l/m 0 min 2 min 0,0 UV-I 0 W/m 36,0 km/h (5 Bft)
26.01.2014 22:02 3,6 C 2,2 C 96 % 990,7 hPa 0,0 l/m 0 min 2 min 0,0 UV-I 0 W/m 25,7 km/h (4 Bft)
26.01.2014 22:04 3,6 C 2,2 C 96 % 990,7 hPa 0,2 l/m 0 min 2 min 0,0 UV-I 0 W/m 30,9 km/h (5 Bft)
26.01.2014 22:06 3,6 C 2,2 C 96 % 990,6 hPa 0,0 l/m 0 min 2 min 0,0 UV-I 0 W/m 25,7 km/h (4 Bft)
26.01.2014 22:08 3,6 C 2,2 C 96 % 990,6 hPa 0,0 l/m 0 min 2 min 0,0 UV-I 0 W/m 25,7 km/h (4 Bft)
26.01.2014 22:10 3,7 C 2,2 C 96 % 990,6 hPa 0,0 l/m 0 min 2 min 0,0 UV-I 0 W/m 33,5 km/h (5 Bft)
26.01.2014 22:12 3,7 C 2,2 C 96 % 990,6 hPa 0,2 l/m 0 min 2 min 0,0 UV-I 0 W/m 30,9 km/h (5 Bft)
26.01.2014 22:14 3,7 C 2,2 C 96 % 990,5 hPa 0,0 l/m 0 min 2 min 0,0 UV-I 0 W/m 33,5 km/h (5 Bft)
26.01.2014 22:16 3,7 C 2,2 C 96 % 990,5 hPa 0,2 l/m 0 min 2 min 0,0 UV-I 0 W/m 28,3 km/h (4 Bft)
26.01.2014 22:18 3,7 C 2,8 C 96 % 990,6 hPa 0,0 l/m 0 min 2 min 0,0 UV-I 0 W/m 28,3 km/h (4 Bft)
26.01.2014 22:20 3,7 C 2,8 C 96 % 990,6 hPa 0,0 l/m 0 min 2 min 0,0 UV-I 0 W/m 36,0 km/h (5 Bft)
26.01.2014 22:22 3,7 C 2,8 C 96 % 990,6 hPa 0,0 l/m 0 min 2 min 0,0 UV-I 0 W/m 33,5 km/h (5 Bft)
26.01.2014 22:24 3,7 C 2,8 C 96 % 990,5 hPa 0,0 l/m 0 min 2 min 0,0 UV-I 0 W/m 25,7 km/h (4 Bft)
26.01.2014 22:26 3,7 C 2,8 C 96 % 990,5 hPa 0,0 l/m 0 min 2 min 0,0 UV-I 0 W/m 25,7 km/h (4 Bft)
26.01.2014 22:28 3,7 C 2,8 C 97 % 990,5 hPa 0,0 l/m 0 min 2 min 0,0 UV-I 0 W/m 28,3 km/h (4 Bft)
26.01.2014 22:30 3,7 C 2,8 C 97 % 990,5 hPa 0,0 l/m 0 min 0 min 0,0 UV-I 0 W/m 28,3 km/h (4 Bft)
26.01.2014 22:32 3,7 C 2,8 C 97 % 990,4 hPa 0,0 l/m 0 min 0 min 0,0 UV-I 0 W/m 28,3 km/h (4 Bft)
26.01.2014 22:34 3,7 C 2,8 C 97 % 990,4 hPa 0,0 l/m 0 min 0 min 0,0 UV-I 0 W/m 25,7 km/h (4 Bft)
26.01.2014 22:36 3,8 C 2,8 C 97 % 990,4 hPa 0,0 l/m 0 min 2 min 0,0 UV-I 0 W/m 28,3 km/h (4 Bft)
26.01.2014 22:38 3,8 C 2,8 C 97 % 990,3 hPa 0,0 l/m 0 min 2 min 0,0 UV-I 0 W/m 18,0 km/h (3 Bft)
26.01.2014 22:40 3,8 C 2,8 C 97 % 990,5 hPa 0,0 l/m 0 min 2 min 0,0 UV-I 0 W/m 28,3 km/h (4 Bft)
26.01.2014 22:42 3,8 C 2,8 C 97 % 990,3 hPa 0,0 l/m 0 min 0 min 0,0 UV-I 0 W/m 18,0 km/h (3 Bft)
26.01.2014 22:44 3,8 C 2,8 C 97 % 990,3 hPa 0,0 l/m 0 min 2 min 0,0 UV-I 0 W/m 10,3 km/h (2 Bft)
26.01.2014 22:46 3,8 C 2,8 C 97 % 990,3 hPa 0,2 l/m 0 min 2 min 0,0 UV-I 0 W/m 20,6 km/h (4 Bft)
26.01.2014 22:48 3,8 C 2,8 C 97 % 990,2 hPa 0,0 l/m 0 min 2 min 0,0 UV-I 0 W/m 18,0 km/h (3 Bft)
26.01.2014 22:50 3,8 C 2,8 C 97 % 990,0 hPa 0,0 l/m 0 min 2 min 0,0 UV-I 0 W/m 23,2 km/h (4 Bft)
26.01.2014 22:52 3,8 C 2,8 C 97 % 990,1 hPa 0,0 l/m 0 min 2 min 0,0 UV-I 0 W/m 12,9 km/h (3 Bft)
26.01.2014 22:54 3,8 C 2,8 C 97 % 990,1 hPa 0,0 l/m 0 min 2 min 0,0 UV-I 0 W/m 18,0 km/h (3 Bft)
26.01.2014 22:56 3,8 C 2,8 C 97 % 990,2 hPa 0,0 l/m 0 min 0 min 0,0 UV-I 0 W/m 23,2 km/h (4 Bft)
26.01.2014 22:58 3,8 C 2,8 C 97 % 990,2 hPa 0,0 l/m 0 min 2 min 0,0 UV-I 0 W/m 15,4 km/h (3 Bft)
26.01.2014 23:00 3,8 C 2,8 C 97 % 990,1 hPa 0,0 l/m 0 min 2 min 0,0 UV-I 0 W/m 23,2 km/h (4 Bft)
26.01.2014 23:02 3,8 C 2,8 C 97 % 990,2 hPa 0,0 l/m 0 min 0 min 0,0 UV-I 0 W/m 12,9 km/h (3 Bft)
26.01.2014 23:04 3,8 C 2,8 C 97 % 990,2 hPa 0,0 l/m 0 min 2 min 0,0 UV-I 0 W/m 23,2 km/h (4 Bft)
26.01.2014 23:06 3,8 C 2,8 C 97 % 990,0 hPa 0,0 l/m 0 min 2 min 0,0 UV-I 0 W/m 20,6 km/h (4 Bft)
26.01.2014 23:08 3,8 C 2,8 C 97 % 989,9 hPa 0,2 l/m 0 min 0 min 0,0 UV-I 0 W/m 20,6 km/h (4 Bft)
26.01.2014 23:10 3,8 C 2,8 C 97 % 989,8 hPa 0,0 l/m 0 min 0 min 0,0 UV-I 0 W/m 15,4 km/h (3 Bft)
26.01.2014 23:12 3,9 C 2,8 C 97 % 989,8 hPa 0,0 l/m 0 min 0 min 0,0 UV-I 0 W/m 23,2 km/h (4 Bft)
26.01.2014 23:14 3,9 C 2,8 C 97 % 989,9 hPa 0,0 l/m 0 min 0 min 0,0 UV-I 0 W/m 18,0 km/h (3 Bft)
26.01.2014 23:16 3,9 C 2,8 C 97 % 989,9 hPa 0,0 l/m 0 min 0 min 0,0 UV-I 0 W/m 15,4 km/h (3 Bft)
26.01.2014 23:18 3,9 C 2,8 C 97 % 990,0 hPa 0,0 l/m 0 min 0 min 0,0 UV-I 0 W/m 7,7 km/h (2 Bft)
26.01.2014 23:20 3,9 C 2,8 C 97 % 990,0 hPa 0,0 l/m 0 min 0 min 0,0 UV-I 0 W/m 15,4 km/h (3 Bft)
26.01.2014 23:22 3,9 C 2,8 C 97 % 989,9 hPa 0,0 l/m 0 min 0 min 0,0 UV-I 0 W/m 15,4 km/h (3 Bft)
26.01.2014 23:24 3,9 C 2,8 C 97 % 990,0 hPa 0,0 l/m 0 min 0 min 0,0 UV-I 0 W/m 5,1 km/h (1 Bft)
26.01.2014 23:26 3,9 C 2,8 C 97 % 989,8 hPa 0,0 l/m 0 min 0 min 0,0 UV-I 0 W/m 18,0 km/h (3 Bft)
26.01.2014 23:28 3,9 C 2,8 C 97 % 989,8 hPa 0,0 l/m 0 min 0 min 0,0 UV-I 0 W/m 10,3 km/h (2 Bft)
26.01.2014 23:30 3,9 C 2,8 C 97 % 989,8 hPa 0,0 l/m 0 min 0 min 0,0 UV-I 0 W/m 20,6 km/h (4 Bft)
26.01.2014 23:32 3,9 C 2,8 C 97 % 989,7 hPa 0,0 l/m 0 min 0 min 0,0 UV-I 0 W/m 12,9 km/h (3 Bft)
26.01.2014 23:34 3,9 C 2,8 C 97 % 989,7 hPa 0,0 l/m 0 min 0 min 0,0 UV-I 0 W/m 5,1 km/h (1 Bft)
26.01.2014 23:36 3,9 C 2,8 C 97 % 989,6 hPa 0,0 l/m 0 min 0 min 0,0 UV-I 0 W/m 7,7 km/h (2 Bft)
26.01.2014 23:38 4,0 C 2,8 C 97 % 989,6 hPa 0,0 l/m 0 min 0 min 0,0 UV-I 0 W/m 10,3 km/h (2 Bft)
26.01.2014 23:40 4,0 C 2,8 C 97 % 989,7 hPa 0,0 l/m 0 min 0 min 0,0 UV-I 0 W/m 7,7 km/h (2 Bft)
26.01.2014 23:42 4,0 C 2,8 C 97 % 989,8 hPa 0,0 l/m 0 min 0 min 0,0 UV-I 0 W/m 7,7 km/h (2 Bft)
26.01.2014 23:44 4,0 C 2,8 C 97 % 989,7 hPa 0,0 l/m 0 min 0 min 0,0 UV-I 0 W/m 7,7 km/h (2 Bft)
26.01.2014 23:46 4,0 C 2,8 C 97 % 989,7 hPa 0,0 l/m 0 min 0 min 0,0 UV-I 0 W/m 5,1 km/h (1 Bft)
26.01.2014 23:48 4,1 C 2,8 C 97 % 989,7 hPa 0,0 l/m 0 min 0 min 0,0 UV-I 0 W/m 12,9 km/h (3 Bft)
26.01.2014 23:50 4,1 C 2,8 C 97 % 989,6 hPa 0,0 l/m 0 min 2 min 0,0 UV-I 0 W/m 23,2 km/h (4 Bft)
26.01.2014 23:52 4,1 C 2,8 C 97 % 989,6 hPa 0,0 l/m 0 min 2 min 0,0 UV-I 0 W/m 23,2 km/h (4 Bft)
26.01.2014 23:54 4,1 C 2,8 C 97 % 989,7 hPa 0,0 l/m 0 min 2 min 0,0 UV-I 0 W/m 0,0 km/h (0 Bft)
26.01.2014 23:56 4,1 C 2,8 C 97 % 989,8 hPa 0,0 l/m 0 min 2 min 0,0 UV-I 0 W/m 0,0 km/h (0 Bft)
26.01.2014 23:58 4,1 C 2,8 C 97 % 989,6 hPa 0,0 l/m 0 min 2 min 0,0 UV-I 0 W/m 2,6 km/h (1 Bft)
_ Min-Zeit 20:20 00:00 15:26 23:36 - - - - - 05:44
Minimum _ 3,2 C 2,2 C 77 % 989,6 hPa - - - - - 0,0 km/h (0 Bft)
_ Max-Zeit 13:16 12:08 22:28 07:58 00:56 11:04 00:00 00:00 12:10 20:40
Maximum _ 6,3 C 5,6 C 97 % 1011,0 hPa 0,2 l/m 2 min 2 min 0,0 UV-I 237 W/m 48,9 km/h
SO (6 Bft)
Durchschnitt _ 4,7 C 3,3 C 90 % 1003,9 hPa #11,0 l/m #44 min. #8:14 h 0,0 UV-I 91 W/m 16,6 km/h (3 Bft)
© 2014 W. Hausmann